M I D A S
Marine Information and Data Acquisition System
Tripno 1024 of the Zeeleeuw from 2006-01-17 09:22:20 to 2006-01-17 12:20:56
Back to CruiseResearch ActivitiesStationsMapUnderway DataData graphs

EquipmentUnitsComment
TimeDGPSUTC
LatitudeDGPSDM.mWGS84
LongitudeDGPSDM.mWGS84
TemperatureSBE03/SBE38deg celciusITS90
ConductivitySBE21S/mITS90
SalinitySBE21 Practical Salinity Units
ChlorophylAChelsea fluorimeterg/lCalibrated in Aceton
Missing or incorrect values are displayed as -999
Sea surface data collected by the RV Zeeleeuw from 2006-01-17 09:22:37 to 2006-01-17 12:33:39
                                                                                    Next 1000 lines
Time Latitude Longitude Temperature Conductivity Salinity ChlorophylA
2006-01-17 09:22:47 51°13.602 2°56.095 -999 0.06539 0.339942 0.870512
2006-01-17 09:22:53 51°13.603 2°56.092 -999 0.06539 0.339942 0.870512
2006-01-17 09:22:58 51°13.604 2°56.088 -999 0.06539 0.339942 0.870512
2006-01-17 09:23:03 51°13.605 2°56.084 -999 0.06539 0.339953 0.870512
2006-01-17 09:23:08 51°13.606 2°56.079 -999 0.065288 0.339408 0.870512
2006-01-17 09:23:14 51°13.608 2°56.073 -999 0.06539 0.339964 0.870512
2006-01-17 09:23:18 51°13.609 2°56.068 -999 0.065288 0.339419 0.870512
2006-01-17 09:23:24 51°13.612 2°56.061 -999 0.065288 0.339419 0.870512
2006-01-17 09:23:28 51°13.613 2°56.056 -999 0.065288 0.339425 0.870512
2006-01-17 09:23:34 51°13.616 2°56.047 -999 0.065288 0.339425 0.870512
2006-01-17 09:23:38 51°13.617 2°56.041 -999 0.065288 0.339419 0.904221
2006-01-17 09:23:44 51°13.619 2°56.032 -999 0.06539 0.33997 0.870512
2006-01-17 09:23:48 51°13.621 2°56.026 -999 0.065288 0.339419 0.904221
2006-01-17 09:23:54 51°13.623 2°56.016 -999 0.065288 0.339419 0.904221
2006-01-17 09:23:58 51°13.624 2°56.01 -999 0.06539 0.339964 0.904221
2006-01-17 09:24:04 51°13.626 2°55.999 -999 0.065288 0.339413 0.904221
2006-01-17 09:24:08 51°13.627 2°55.991 -999 0.065288 0.339419 0.904221
2006-01-17 09:24:13 51°13.629 2°55.982 -999 0.065288 0.339425 0.904221
2006-01-17 09:24:18 51°13.631 2°55.972 -999 0.065288 0.339425 0.904221
2006-01-17 09:24:24 51°13.633 2°55.961 -999 0.065288 0.339425 0.904221
2006-01-17 09:24:28 51°13.635 2°55.953 -999 0.065288 0.33943 0.904221
2006-01-17 09:24:33 51°13.638 2°55.944 -999 0.06539 0.339981 0.904221
2006-01-17 09:24:38 51°13.64 2°55.935 -999 0.065288 0.33943 0.904221
2006-01-17 09:24:44 51°13.644 2°55.925 -999 0.065288 0.339436 0.904221
2006-01-17 09:24:48 51°13.646 2°55.917 -999 0.065288 0.33943 0.904221
2006-01-17 09:24:54 51°13.649 2°55.907 -999 0.065288 0.33943 0.904221
2006-01-17 09:24:58 51°13.651 2°55.9 -999 0.065288 0.339436 0.904221
2006-01-17 09:25:04 51°13.655 2°55.89 -999 0.065288 0.339436 0.904221
2006-01-17 09:25:08 51°13.657 2°55.883 -999 0.065288 0.339436 0.904221
2006-01-17 09:25:14 51°13.659 2°55.872 -999 0.065288 0.339441 0.904221
2006-01-17 09:25:18 51°13.66 2°55.865 -999 0.065288 0.339441 0.904221
2006-01-17 09:25:24 51°13.663 2°55.854 -999 0.065288 0.339441 0.904221
2006-01-17 09:25:28 51°13.665 2°55.847 -999 0.065288 0.339447 0.904221
2006-01-17 09:25:34 51°13.668 2°55.837 -999 0.065288 0.339447 0.904221
2006-01-17 09:25:38 51°13.67 2°55.83 -999 0.065288 0.339453 0.904221
2006-01-17 09:25:43 51°13.672 2°55.821 -999 0.065288 0.339453 0.904221
2006-01-17 09:25:48 51°13.674 2°55.813 -999 0.065288 0.339453 0.904221
2006-01-17 09:25:54 51°13.676 2°55.802 -999 0.065288 0.339453 0.904221
2006-01-17 09:25:58 51°13.678 2°55.794 -999 0.065288 0.339453 0.904221
2006-01-17 09:26:04 51°13.68 2°55.784 -999 0.065288 0.339453 0.904221
2006-01-17 09:26:08 51°13.68 2°55.778 -999 0.065288 0.339447 0.904221
2006-01-17 09:26:14 51°13.682 2°55.769 -999 0.065288 0.339453 0.904221
2006-01-17 09:26:18 51°13.683 2°55.763 -999 0.065288 0.339453 0.904221
2006-01-17 09:26:23 51°13.684 2°55.756 -999 0.065288 0.339453 0.904221
2006-01-17 09:26:28 51°13.684 2°55.751 -999 0.065288 0.339458 0.904221
2006-01-17 09:26:32 51°13.685 2°55.747 -999 0.065288 0.339458 0.904221
2006-01-17 09:26:38 51°13.685 2°55.743 -999 0.065288 0.339464 0.904221
2006-01-17 09:26:43 51°13.686 2°55.74 -999 0.065288 0.339458 0.93793
2006-01-17 09:26:47 51°13.686 2°55.739 -999 0.065288 0.339464 0.904221
2006-01-17 09:26:52 51°13.687 2°55.737 -999 0.065288 0.339464 0.904221
2006-01-17 09:26:58 51°13.687 2°55.737 -999 0.065288 0.339464 0.904221
2006-01-17 09:27:03 51°13.688 2°55.737 -999 0.065288 0.339464 0.93793
2006-01-17 09:27:08 51°13.689 2°55.739 -999 0.065288 0.339469 0.904221
2006-01-17 09:27:13 51°13.69 2°55.74 -999 0.065288 0.339475 0.904221
2006-01-17 09:27:17 51°13.692 2°55.742 -999 0.065288 0.339481 0.904221
2006-01-17 09:27:23 51°13.694 2°55.745 -999 0.065288 0.339481 0.904221
2006-01-17 09:27:28 51°13.696 2°55.748 -999 0.065288 0.339481 0.904221
2006-01-17 09:27:33 51°13.699 2°55.75 -999 0.065288 0.339486 0.93793
2006-01-17 09:27:37 51°13.702 2°55.751 -999 0.065288 0.339492 0.904221
2006-01-17 09:27:43 51°13.706 2°55.752 -999 0.065288 0.339497 0.904221
2006-01-17 09:27:48 51°13.71 2°55.753 -999 0.065288 0.339503 0.904221
2006-01-17 09:27:53 51°13.714 2°55.752 -999 0.065288 0.339503 0.904221
2006-01-17 09:27:58 51°13.719 2°55.751 -999 0.065288 0.339503 0.904221
2006-01-17 09:28:03 51°13.724 2°55.748 -999 0.065288 0.339509 0.93793
2006-01-17 09:28:08 51°13.728 2°55.745 -999 0.065288 0.339509 0.904221
2006-01-17 09:28:13 51°13.733 2°55.741 -999 0.065288 0.339509 0.904221
2006-01-17 09:28:18 51°13.738 2°55.736 -999 0.065288 0.339503 0.904221
2006-01-17 09:28:23 51°13.742 2°55.73 -999 0.065288 0.339503 0.904221
2006-01-17 09:28:27 51°13.746 2°55.726 -999 0.065288 0.339497 0.904221
2006-01-17 09:28:32 51°13.751 2°55.72 -999 0.065288 0.339492 0.904221
2006-01-17 09:28:38 51°13.757 2°55.712 -999 0.065288 0.339486 0.904221
2006-01-17 09:28:43 51°13.763 2°55.705 -999 0.065288 0.339481 0.904221
2006-01-17 09:28:48 51°13.768 2°55.698 -999 0.065288 0.339481 0.904221
2006-01-17 09:28:52 51°13.773 2°55.692 -999 0.065288 0.339481 0.904221
2006-01-17 09:28:58 51°13.78 2°55.683 -999 0.065288 0.339481 0.904221
2006-01-17 09:29:03 51°13.787 2°55.676 -999 0.065288 0.339481 0.93793
2006-01-17 09:29:08 51°13.794 2°55.669 -999 0.065288 0.339486 0.93793
2006-01-17 09:29:12 51°13.799 2°55.663 -999 0.065288 0.339492 0.904221
2006-01-17 09:29:18 51°13.808 2°55.655 -999 0.065288 0.339497 0.904221
2006-01-17 09:29:23 51°13.816 2°55.648 -999 0.065288 0.339497 0.904221
2006-01-17 09:29:28 51°13.824 2°55.641 -999 0.065288 0.339497 0.904221
2006-01-17 09:29:33 51°13.832 2°55.635 -999 0.065288 0.339503 0.904221
2006-01-17 09:29:38 51°13.841 2°55.628 -999 0.065288 0.339503 0.93793
2006-01-17 09:29:43 51°13.849 2°55.621 -999 0.065288 0.339503 0.904221
2006-01-17 09:29:48 51°13.857 2°55.614 -999 0.065288 0.339514 0.904221
2006-01-17 09:29:53 51°13.865 2°55.608 -999 0.065288 0.339514 0.904221
2006-01-17 09:29:58 51°13.874 2°55.602 -999 0.065288 0.33952 0.904221
2006-01-17 09:30:03 51°13.882 2°55.596 -999 0.065288 0.33952 0.904221
2006-01-17 09:30:08 51°13.89 2°55.589 -999 0.065288 0.339525 0.904221
2006-01-17 09:30:13 51°13.898 2°55.583 -999 0.065288 0.339531 0.904221
2006-01-17 09:30:18 51°13.907 2°55.577 -999 0.065288 0.339531 0.904221
2006-01-17 09:30:23 51°13.915 2°55.571 -999 0.065288 0.339531 0.904221
2006-01-17 09:30:28 51°13.923 2°55.565 -999 0.065288 0.339531 0.93793
2006-01-17 09:30:33 51°13.932 2°55.558 -999 0.065288 0.339531 0.904221
2006-01-17 09:30:38 51°13.94 2°55.552 -999 0.065288 0.339531 0.904221
2006-01-17 09:30:43 51°13.948 2°55.546 -999 0.065288 0.339531 0.904221
2006-01-17 09:30:48 51°13.957 2°55.54 -999 0.065288 0.339537 0.904221
2006-01-17 09:30:53 51°13.965 2°55.534 -999 0.065288 0.339537 0.904221
2006-01-17 09:30:58 51°13.974 2°55.528 -999 0.065288 0.339537 0.93793
2006-01-17 09:31:03 51°13.982 2°55.522 -999 0.065288 0.339542 0.904221
2006-01-17 09:31:08 51°13.99 2°55.517 -999 0.065288 0.339542 0.904221
2006-01-17 09:31:13 51°13.999 2°55.511 -999 0.065288 0.339542 0.904221
2006-01-17 09:31:18 51°14.007 2°55.505 -999 0.065288 0.339542 0.93793
2006-01-17 09:31:23 51°14.016 2°55.499 -999 0.065288 0.339542 0.93793
2006-01-17 09:31:27 51°14.023 2°55.495 -999 0.065288 0.339548 0.904221
2006-01-17 09:31:33 51°14.033 2°55.487 -999 0.065288 0.339548 0.904221
2006-01-17 09:31:38 51°14.042 2°55.481 -999 0.065288 0.339548 0.904221
2006-01-17 09:31:43 51°14.05 2°55.475 -999 0.065288 0.339548 0.904221
2006-01-17 09:31:48 51°14.059 2°55.469 -999 0.065288 0.339548 0.904221
2006-01-17 09:31:53 51°14.068 2°55.462 -999 0.065288 0.339548 0.904221
2006-01-17 09:31:58 51°14.077 2°55.455 -999 0.065288 0.339548 0.904221
2006-01-17 09:32:03 51°14.086 2°55.449 -999 0.065288 0.339548 0.904221
2006-01-17 09:32:08 51°14.094 2°55.442 -999 0.065288 0.339548 0.904221
2006-01-17 09:32:13 51°14.103 2°55.435 -999 0.065288 0.339553 0.904221
2006-01-17 09:32:18 51°14.112 2°55.428 -999 0.065288 0.339553 0.93793
2006-01-17 09:32:23 51°14.122 2°55.421 -999 0.065288 0.339553 0.93793
2006-01-17 09:32:28 51°14.131 2°55.413 -999 0.065288 0.339559 0.904221
2006-01-17 09:32:33 51°14.141 2°55.405 -999 0.065288 0.339559 0.904221
2006-01-17 09:32:38 51°14.151 2°55.396 -999 0.065288 0.339565 0.93793
2006-01-17 09:32:43 51°14.161 2°55.386 -999 0.065288 0.339565 0.93793
2006-01-17 09:32:48 51°14.171 2°55.376 -999 0.065288 0.339559 0.93793
2006-01-17 09:32:53 51°14.181 2°55.365 -999 0.065288 0.339559 0.93793
2006-01-17 09:32:58 51°14.192 2°55.354 -999 0.065288 0.339565 0.904221
2006-01-17 09:33:03 51°14.202 2°55.342 -999 0.065288 0.339565 0.904221
2006-01-17 09:33:08 51°14.212 2°55.33 -999 0.065288 0.339565 0.93793
2006-01-17 09:33:13 51°14.223 2°55.317 -999 0.065288 0.33957 0.904221
2006-01-17 09:33:18 51°14.233 2°55.303 -999 0.065288 0.339576 0.904221
2006-01-17 09:33:23 51°14.243 2°55.289 -999 0.065288 0.339576 0.904221
2006-01-17 09:33:28 51°14.253 2°55.274 -999 0.065288 0.339576 0.904221
2006-01-17 09:33:33 51°14.262 2°55.259 -999 0.065288 0.339576 0.904221
2006-01-17 09:33:38 51°14.272 2°55.243 -999 0.065288 0.339582 0.904221
2006-01-17 09:33:43 51°14.281 2°55.227 -999 0.065288 0.339582 0.904221
2006-01-17 09:33:48 51°14.29 2°55.21 -999 0.065288 0.339576 0.93793
2006-01-17 09:33:52 51°14.297 2°55.197 -999 0.065288 0.339576 0.93793
2006-01-17 09:33:58 51°14.309 2°55.177 -999 0.065288 0.339582 0.93793
2006-01-17 09:34:03 51°14.318 2°55.16 -999 0.065288 0.339582 0.93793
2006-01-17 09:34:07 51°14.326 2°55.146 -999 0.065288 0.339582 0.93793
2006-01-17 09:34:13 51°14.338 2°55.125 -999 0.065288 0.339582 0.904221
2006-01-17 09:34:18 51°14.348 2°55.108 -999 0.065288 0.339582 0.904221
2006-01-17 09:34:23 51°14.358 2°55.09 -999 0.065288 0.339582 0.904221
2006-01-17 09:34:27 51°14.366 2°55.076 -999 0.065288 0.339582 0.93793
2006-01-17 09:34:33 51°14.378 2°55.055 -999 0.065288 0.339587 0.904221
2006-01-17 09:34:38 51°14.389 2°55.038 -999 0.065288 0.339593 0.93793
2006-01-17 09:34:42 51°14.397 2°55.023 -999 0.065288 0.339593 0.904221
2006-01-17 09:34:48 51°14.41 2°55.002 -999 0.065288 0.339593 0.93793
2006-01-17 09:34:53 51°14.422 2°54.986 -999 0.065288 0.339593 0.93793
2006-01-17 09:34:58 51°14.434 2°54.971 -999 0.065288 0.339587 0.97164
2006-01-17 09:35:03 51°14.447 2°54.958 -999 0.065288 0.339593 1.241315
2006-01-17 09:35:07 51°14.457 2°54.948 -999 0.065288 0.339593 1.140187
2006-01-17 09:35:13 51°14.473 2°54.934 -999 0.065288 0.339598 1.072768
2006-01-17 09:35:18 51°14.487 2°54.921 -999 0.065288 0.33961 1.106477
2006-01-17 09:35:23 51°14.501 2°54.91 -999 0.065288 0.33961 1.106477
2006-01-17 09:35:28 51°14.514 2°54.899 -999 0.065288 0.33961 1.072768
2006-01-17 09:35:33 51°14.528 2°54.888 -999 0.065288 0.339604 1.106477
2006-01-17 09:35:38 51°14.542 2°54.879 -999 0.065288 0.33961 1.072768
2006-01-17 09:35:43 51°14.557 2°54.87 -999 0.065288 0.33961 1.005349
2006-01-17 09:35:48 51°14.572 2°54.862 -999 0.065288 0.33961 1.005349
2006-01-17 09:35:52 51°14.584 2°54.856 -999 0.065288 0.33961 1.005349
2006-01-17 09:35:58 51°14.603 2°54.848 -999 0.065288 0.33961 1.376153
2006-01-17 09:36:03 51°14.618 2°54.841 -999 0.065288 0.33961 1.51099
2006-01-17 09:36:08 51°14.634 2°54.837 -999 0.065288 0.339621 1.5447
2006-01-17 09:36:13 51°14.65 2°54.831 -999 0.065288 0.339615 1.207606
2006-01-17 09:36:18 51°14.666 2°54.827 -999 0.065288 0.339621 1.308734
2006-01-17 09:36:23 51°14.683 2°54.824 -999 0.065288 0.339621 1.308734
2006-01-17 09:36:28 51°14.699 2°54.82 -999 0.065288 0.339621 1.241315
2006-01-17 09:36:33 51°14.715 2°54.816 -999 0.065288 0.339626 1.51099
2006-01-17 09:36:38 51°14.732 2°54.812 -999 0.065288 0.339632 1.106477
2006-01-17 09:36:43 51°14.748 2°54.808 -999 0.065288 0.339632 1.106477
2006-01-17 09:36:48 51°14.764 2°54.804 -999 0.065288 0.339632 1.106477
2006-01-17 09:36:53 51°14.781 2°54.798 -999 0.065288 0.339632 1.106477
2006-01-17 09:36:58 51°14.797 2°54.792 -999 0.065288 0.339638 1.106477
2006-01-17 09:37:03 51°14.814 2°54.786 -999 0.065288 0.339632 1.106477
2006-01-17 09:37:08 51°14.83 2°54.78 -999 0.065288 0.339632 1.140187
2006-01-17 09:37:13 51°14.846 2°54.772 -999 0.065288 0.339638 1.173896
2006-01-17 09:37:18 51°14.862 2°54.765 -999 0.065288 0.339638 1.140187
2006-01-17 09:37:22 51°14.875 2°54.759 -999 0.065288 0.339638 1.140187
2006-01-17 09:37:27 51°14.892 2°54.752 -999 0.065288 0.339638 1.072768
2006-01-17 09:37:32 51°14.909 2°54.746 -999 0.065288 0.339638 1.140187
2006-01-17 09:37:38 51°14.928 2°54.738 -999 0.065288 0.339643 1.173896
2006-01-17 09:37:42 51°14.941 2°54.732 -999 0.065288 0.339643 1.072768
2006-01-17 09:37:47 51°14.958 2°54.726 -999 0.065288 0.339643 1.072768
2006-01-17 09:37:53 51°14.977 2°54.717 -999 0.065288 0.339643 1.072768
2006-01-17 09:37:58 51°14.993 2°54.71 -999 0.065288 0.339649 1.072768
2006-01-17 09:38:03 51°15.01 2°54.702 -999 0.065288 0.339649 1.241315
2006-01-17 09:38:08 51°15.026 2°54.695 -999 0.065288 0.339649 1.275024
2006-01-17 09:38:12 51°15.039 2°54.69 -999 0.065288 0.339643 1.140187
2006-01-17 09:38:18 51°15.058 2°54.682 -999 0.065288 0.339643 1.409862
2006-01-17 09:38:23 51°15.074 2°54.676 -999 0.065288 0.339643 1.409862
2006-01-17 09:38:28 51°15.09 2°54.67 -999 0.065288 0.339649 1.477281
2006-01-17 09:38:32 51°15.103 2°54.666 -999 0.065288 0.339649 1.308734
2006-01-17 09:38:37 51°15.12 2°54.662 -999 0.065288 0.339654 1.5447
2006-01-17 09:38:43 51°15.139 2°54.657 -999 0.065288 0.33966 1.241315
2006-01-17 09:38:48 51°15.155 2°54.653 -999 0.065288 0.33966 1.477281
2006-01-17 09:38:53 51°15.171 2°54.649 -999 0.065288 0.33966 1.477281
2006-01-17 09:38:58 51°15.187 2°54.645 -999 0.065288 0.33966 1.308734
2006-01-17 09:39:03 51°15.204 2°54.641 -999 0.065288 0.33966 1.308734
2006-01-17 09:39:07 51°15.218 2°54.638 -999 0.065288 0.339666 1.173896
2006-01-17 09:39:12 51°15.234 2°54.634 -999 0.065288 0.339666 1.173896
2006-01-17 09:39:18 51°15.253 2°54.628 -999 0.065288 0.339671 1.376153
2006-01-17 09:39:23 51°15.27 2°54.623 -999 0.065288 0.339671 1.376153
2006-01-17 09:39:27 51°15.283 2°54.618 -999 0.065288 0.339671 1.376153
2006-01-17 09:39:32 51°15.299 2°54.611 -999 0.065288 0.339677 1.275024
2006-01-17 09:39:37 51°15.315 2°54.603 -999 0.065288 0.339677 1.241315
2006-01-17 09:39:42 51°15.331 2°54.595 -999 0.065288 0.339677 1.241315
2006-01-17 09:39:48 51°15.35 2°54.585 -999 0.065288 0.339677 1.241315
2006-01-17 09:39:52 51°15.363 2°54.579 -999 0.065288 0.339677 1.241315
2006-01-17 09:39:57 51°15.38 2°54.572 -999 0.065288 0.339677 1.308734
2006-01-17 09:40:02 51°15.396 2°54.564 -999 0.065288 0.339682 1.140187
2006-01-17 09:40:07 51°15.413 2°54.558 -999 0.065288 0.339682 1.072768
2006-01-17 09:40:12 51°15.429 2°54.551 -999 0.065288 0.339688 1.072768
2006-01-17 09:40:17 51°15.446 2°54.545 -999 0.065288 0.339688 1.072768
2006-01-17 09:40:23 51°15.466 2°54.538 -999 0.065288 0.339688 1.072768
2006-01-17 09:40:27 51°15.479 2°54.534 -999 0.065288 0.339694 1.207606
2006-01-17 09:40:32 51°15.496 2°54.528 -999 0.065288 0.339688 1.106477
2006-01-17 09:40:36 51°15.509 2°54.524 -999 0.065288 0.339694 1.241315
2006-01-17 09:40:43 51°15.532 2°54.517 -999 0.065288 0.339694 1.342443
2006-01-17 09:40:48 51°15.549 2°54.512 -999 0.065288 0.339699 1.173896
2006-01-17 09:40:52 51°15.562 2°54.508 -999 0.065288 0.339699 1.173896
2006-01-17 09:40:56 51°15.576 2°54.503 -999 0.065288 0.339699 1.207606
2006-01-17 09:41:03 51°15.599 2°54.496 -999 0.065288 0.339699 1.140187
2006-01-17 09:41:07 51°15.612 2°54.492 -999 0.065288 0.339705 1.106477
2006-01-17 09:41:12 51°15.629 2°54.486 -999 0.065288 0.339711 1.140187
2006-01-17 09:41:16 51°15.642 2°54.481 -999 0.065288 0.339716 1.072768
2006-01-17 09:41:22 51°15.662 2°54.473 -999 0.065288 0.339716 1.072768
2006-01-17 09:41:27 51°15.678 2°54.466 -999 0.065288 0.339716 1.140187
2006-01-17 09:41:32 51°15.695 2°54.46 -999 0.065288 0.339716 1.140187
2006-01-17 09:41:37 51°15.711 2°54.453 -999 0.065288 0.339716 1.140187
2006-01-17 09:41:43 51°15.731 2°54.445 -999 0.065288 0.339716 1.207606
2006-01-17 09:41:47 51°15.744 2°54.44 -999 0.065288 0.339716 1.51099
2006-01-17 09:41:52 51°15.76 2°54.434 -999 0.065288 0.339716 1.51099
2006-01-17 09:41:57 51°15.777 2°54.429 -999 0.065288 0.339722 1.140187
2006-01-17 09:42:02 51°15.793 2°54.422 -999 0.065288 0.339722 1.140187
2006-01-17 09:42:07 51°15.81 2°54.417 -999 0.065288 0.339727 1.039059
2006-01-17 09:42:13 51°15.827 2°54.411 -999 0.065288 0.339727 1.072768
2006-01-17 09:42:18 51°15.843 2°54.405 -999 0.065288 0.339733 1.072768
2006-01-17 09:42:23 51°15.861 2°54.399 -999 0.065288 0.339733 1.072768
2006-01-17 09:42:30 51°15.884 2°54.39 -999 0.065288 0.339733 1.072768
2006-01-17 09:42:34 51°15.898 2°54.385 -999 0.065288 0.339733 1.039059
2006-01-17 09:42:38 51°15.909 2°54.381 -999 0.065288 0.339739 1.072768
2006-01-17 09:42:42 51°15.922 2°54.376 -999 0.065288 0.339739 1.106477
2006-01-17 09:42:48 51°15.942 2°54.37 -999 0.065288 0.339739 1.140187
2006-01-17 09:42:53 51°15.958 2°54.364 -999 0.065288 0.339739 1.140187
2006-01-17 09:42:58 51°15.975 2°54.358 -999 0.065288 0.339744 1.140187
2006-01-17 09:43:03 51°15.991 2°54.353 -999 0.065288 0.339744 1.173896
2006-01-17 09:43:08 51°16.008 2°54.347 -999 0.065288 0.339744 1.106477
2006-01-17 09:43:13 51°16.025 2°54.341 -999 0.065288 0.339744 1.106477
2006-01-17 09:43:18 51°16.041 2°54.336 -999 0.065288 0.339744 1.072768
2006-01-17 09:43:23 51°16.057 2°54.331 -999 0.065288 0.339744 1.072768
2006-01-17 09:43:28 51°16.074 2°54.325 -999 0.065288 0.33975 1.173896
2006-01-17 09:43:33 51°16.09 2°54.32 -999 0.065288 0.33975 1.140187
2006-01-17 09:43:38 51°16.105 2°54.315 -999 0.065288 0.339761 1.072768
2006-01-17 09:43:42 51°16.117 2°54.312 -999 0.065288 0.339767 1.207606
2006-01-17 09:43:48 51°16.132 2°54.307 -999 0.065288 0.339755 1.173896
2006-01-17 09:43:53 51°16.144 2°54.307 -999 0.065288 0.339755 1.173896
2006-01-17 09:43:58 51°16.154 2°54.309 -999 0.065288 0.339755 1.173896
2006-01-17 09:44:03 51°16.163 2°54.312 -999 0.065288 0.339767 1.173896
2006-01-17 09:44:08 51°16.171 2°54.316 -999 0.065288 0.339778 1.173896
2006-01-17 09:44:13 51°16.178 2°54.321 -999 0.065288 0.339778 1.173896
2006-01-17 09:44:18 51°16.184 2°54.326 -999 0.065288 0.339784 1.173896
2006-01-17 09:44:23 51°16.189 2°54.331 -999 0.065288 0.339784 1.173896
2006-01-17 09:44:28 51°16.194 2°54.336 -999 0.065288 0.339784 1.173896
2006-01-17 09:44:33 51°16.197 2°54.342 -999 0.065288 0.339784 1.409862
2006-01-17 09:44:38 51°16.201 2°54.346 -999 0.065288 0.339784 1.612118
2006-01-17 09:44:43 51°16.204 2°54.35 -999 0.065288 0.339789 1.578409
2006-01-17 09:44:48 51°16.206 2°54.353 -999 0.065288 0.339795 1.173896
2006-01-17 09:44:53 51°16.208 2°54.356 -999 0.065288 0.339795 1.173896
2006-01-17 09:44:58 51°16.21 2°54.357 -999 0.065288 0.339789 1.173896
2006-01-17 09:45:03 51°16.212 2°54.358 -999 0.065288 0.339795 1.140187
2006-01-17 09:45:08 51°16.212 2°54.358 -999 0.065288 0.3398 1.140187
2006-01-17 09:45:13 51°16.213 2°54.358 -999 0.065288 0.3398 1.173896
2006-01-17 09:45:18 51°16.214 2°54.359 -999 0.065288 0.339812 1.173896
2006-01-17 09:45:22 51°16.215 2°54.359 -999 0.065288 0.339812 1.173896
2006-01-17 09:45:28 51°16.215 2°54.359 -999 0.065288 0.339817 1.207606
2006-01-17 09:45:33 51°16.216 2°54.359 -999 0.065288 0.339823 1.173896
2006-01-17 09:45:38 51°16.217 2°54.359 -999 0.065288 0.339823 1.207606
2006-01-17 09:45:42 51°16.218 2°54.359 -999 0.065288 0.339823 1.207606
2006-01-17 09:45:48 51°16.218 2°54.359 -999 0.065288 0.339823 1.173896
2006-01-17 09:45:53 51°16.219 2°54.359 -999 0.065288 0.339823 1.173896
2006-01-17 09:45:58 51°16.22 2°54.359 -999 0.065288 0.339817 1.207606
2006-01-17 09:46:02 51°16.22 2°54.359 -999 0.065185 0.339266 1.207606
2006-01-17 09:46:08 51°16.221 2°54.359 -999 0.065185 0.339266 1.140187
2006-01-17 09:46:13 51°16.222 2°54.359 -999 0.065288 0.339817 1.207606
2006-01-17 09:46:18 51°16.222 2°54.359 -999 0.065288 0.339823 1.173896
2006-01-17 09:46:23 51°16.223 2°54.359 -999 0.065288 0.339823 1.173896
2006-01-17 09:46:28 51°16.223 2°54.358 -999 0.065288 0.339828 1.173896
2006-01-17 09:46:33 51°16.224 2°54.358 -999 0.065288 0.339828 1.207606
2006-01-17 09:46:38 51°16.224 2°54.358 -999 0.065288 0.339834 1.173896
2006-01-17 09:46:42 51°16.225 2°54.357 -999 0.065288 0.339834 1.173896
2006-01-17 09:46:48 51°16.225 2°54.357 -999 0.065288 0.339834 1.207606
2006-01-17 09:46:53 51°16.226 2°54.357 -999 0.065288 0.339834 1.207606
2006-01-17 09:46:58 51°16.226 2°54.356 -999 0.065185 0.339283 1.173896
2006-01-17 09:47:03 51°16.226 2°54.356 -999 0.065185 0.339288 1.173896
2006-01-17 09:47:08 51°16.227 2°54.355 -999 0.065185 0.339288 1.173896
2006-01-17 09:47:13 51°16.227 2°54.354 -999 0.065185 0.339288 1.207606
2006-01-17 09:47:18 51°16.227 2°54.354 -999 0.065185 0.339294 1.173896
2006-01-17 09:47:24 51°16.228 2°54.353 -999 0.065185 0.339294 1.173896
2006-01-17 09:47:28 51°16.228 2°54.352 -999 0.065185 0.339294 1.173896
2006-01-17 09:47:33 51°16.228 2°54.352 -999 0.065288 0.339851 1.173896
2006-01-17 09:47:38 51°16.229 2°54.351 -999 0.065288 0.339857 1.207606
2006-01-17 09:47:43 51°16.229 2°54.35 -999 0.065288 0.339857 1.207606
2006-01-17 09:47:48 51°16.23 2°54.349 -999 0.065185 0.339305 1.173896
2006-01-17 09:47:53 51°16.23 2°54.348 -999 0.065185 0.339305 1.173896
2006-01-17 09:47:58 51°16.23 2°54.347 -999 0.065185 0.339311 1.173896
2006-01-17 09:48:03 51°16.23 2°54.347 -999 0.065288 0.339857 1.173896
2006-01-17 09:48:08 51°16.231 2°54.346 -999 0.065185 0.339311 1.173896
2006-01-17 09:48:13 51°16.231 2°54.345 -999 0.065185 0.339311 1.173896
2006-01-17 09:48:18 51°16.231 2°54.343 -999 0.065185 0.339311 1.173896
2006-01-17 09:48:22 51°16.231 2°54.342 -999 0.065185 0.339311 1.173896
2006-01-17 09:48:28 51°16.232 2°54.341 -999 0.065185 0.339316 1.173896
2006-01-17 09:48:33 51°16.232 2°54.34 -999 0.065185 0.339316 1.173896
2006-01-17 09:48:38 51°16.232 2°54.339 -999 0.065185 0.339316 1.173896
2006-01-17 09:48:43 51°16.232 2°54.338 -999 0.065185 0.339322 1.173896
2006-01-17 09:48:48 51°16.232 2°54.336 -999 0.065185 0.339322 1.173896
2006-01-17 09:48:53 51°16.232 2°54.335 -999 0.065185 0.339322 1.173896
2006-01-17 09:48:58 51°16.232 2°54.334 -999 0.065185 0.339333 1.140187
2006-01-17 09:49:03 51°16.232 2°54.333 -999 0.065185 0.339333 1.140187
2006-01-17 09:49:08 51°16.233 2°54.332 -999 0.065185 0.339339 1.173896
2006-01-17 09:49:13 51°16.233 2°54.33 -999 0.065288 0.33989 1.207606
2006-01-17 09:49:18 51°16.233 2°54.329 -999 0.065185 0.339339 1.173896
2006-01-17 09:49:23 51°16.233 2°54.328 -999 0.065185 0.339339 1.173896
2006-01-17 09:49:28 51°16.233 2°54.327 -999 0.065185 0.339345 1.140187
2006-01-17 09:49:33 51°16.233 2°54.325 -999 0.065185 0.339345 1.140187
2006-01-17 09:49:38 51°16.233 2°54.324 -999 0.065185 0.33935 1.173896
2006-01-17 09:49:44 51°16.233 2°54.323 -999 0.065185 0.33935 1.173896
2006-01-17 09:49:48 51°16.232 2°54.321 -999 0.065185 0.33935 1.140187
2006-01-17 09:49:53 51°16.232 2°54.32 -999 0.065185 0.33935 1.140187
2006-01-17 09:49:58 51°16.232 2°54.318 -999 0.065185 0.33935 1.173896
2006-01-17 09:50:03 51°16.232 2°54.317 -999 0.065185 0.339356 1.140187
2006-01-17 09:50:08 51°16.232 2°54.315 -999 0.065185 0.339356 1.173896
2006-01-17 09:50:13 51°16.232 2°54.314 -999 0.065185 0.339361 1.173896
2006-01-17 09:50:18 51°16.232 2°54.313 -999 0.065185 0.339361 1.207606
2006-01-17 09:50:23 51°16.232 2°54.312 -999 0.065185 0.339361 1.207606
2006-01-17 09:50:28 51°16.231 2°54.31 -999 0.065185 0.339367 1.173896
2006-01-17 09:50:33 51°16.231 2°54.308 -999 0.065185 0.339367 1.173896
2006-01-17 09:50:38 51°16.231 2°54.307 -999 0.065185 0.339373 1.173896
2006-01-17 09:50:43 51°16.23 2°54.305 -999 0.065185 0.339373 1.140187
2006-01-17 09:50:48 51°16.23 2°54.304 -999 0.065185 0.339373 1.173896
2006-01-17 09:50:53 51°16.23 2°54.302 -999 0.065185 0.339373 1.173896
2006-01-17 09:50:58 51°16.23 2°54.3 -999 0.065185 0.339378 1.140187
2006-01-17 09:51:03 51°16.229 2°54.299 -999 0.065185 0.339378 1.173896
2006-01-17 09:51:08 51°16.229 2°54.297 -999 0.065185 0.339378 1.173896
2006-01-17 09:51:13 51°16.228 2°54.296 -999 0.065185 0.339378 1.173896
2006-01-17 09:51:18 51°16.228 2°54.294 -999 0.065185 0.339384 1.173896
2006-01-17 09:51:23 51°16.228 2°54.292 -999 0.065185 0.339384 1.173896
2006-01-17 09:51:28 51°16.227 2°54.291 -999 0.065185 0.339384 1.173896
2006-01-17 09:51:33 51°16.227 2°54.29 -999 0.065185 0.339395 1.173896
2006-01-17 09:51:38 51°16.227 2°54.288 -999 0.065185 0.339395 1.140187
2006-01-17 09:51:42 51°16.226 2°54.287 -999 0.065185 0.339401 1.173896
2006-01-17 09:51:48 51°16.226 2°54.286 -999 0.065185 0.339401 1.140187
2006-01-17 09:51:53 51°16.225 2°54.285 -999 0.065185 0.339401 1.140187
2006-01-17 09:51:58 51°16.225 2°54.283 -999 0.065185 0.339401 1.173896
2006-01-17 09:52:03 51°16.224 2°54.282 -999 0.065185 0.339406 1.173896
2006-01-17 09:52:08 51°16.224 2°54.28 -999 0.065185 0.339401 1.173896
2006-01-17 09:52:13 51°16.223 2°54.279 -999 0.065185 0.339406 1.140187
2006-01-17 09:52:18 51°16.223 2°54.277 -999 0.065185 0.339412 1.140187
2006-01-17 09:52:22 51°16.222 2°54.276 -999 0.065185 0.339412 1.140187
2006-01-17 09:52:28 51°16.221 2°54.275 -999 0.065185 0.339412 1.173896
2006-01-17 09:52:33 51°16.221 2°54.273 -999 0.065185 0.339412 1.173896
2006-01-17 09:52:38 51°16.22 2°54.272 -999 0.065185 0.339412 1.173896
2006-01-17 09:52:43 51°16.22 2°54.27 -999 0.065185 0.339417 1.173896
2006-01-17 09:52:48 51°16.219 2°54.269 -999 0.065185 0.339423 1.173896
2006-01-17 09:52:53 51°16.219 2°54.268 -999 0.065185 0.339423 1.173896
2006-01-17 09:52:58 51°16.218 2°54.267 -999 0.065185 0.339429 1.140187
2006-01-17 09:53:03 51°16.218 2°54.265 -999 0.065185 0.339423 1.173896
2006-01-17 09:53:08 51°16.217 2°54.264 -999 0.065185 0.339429 1.173896
2006-01-17 09:53:13 51°16.216 2°54.263 -999 0.065185 0.339429 1.173896
2006-01-17 09:53:18 51°16.215 2°54.262 -999 0.065185 0.33944 1.140187
2006-01-17 09:53:23 51°16.215 2°54.261 -999 0.065185 0.33944 1.140187
2006-01-17 09:53:28 51°16.214 2°54.26 -999 0.065185 0.33944 1.140187
2006-01-17 09:53:33 51°16.214 2°54.258 -999 0.065185 0.339434 1.207606
2006-01-17 09:53:38 51°16.213 2°54.257 -999 0.065185 0.33944 1.207606
2006-01-17 09:53:43 51°16.212 2°54.256 -999 0.065185 0.339446 1.173896
2006-01-17 09:53:48 51°16.212 2°54.255 -999 0.065185 0.339446 1.140187
2006-01-17 09:53:53 51°16.211 2°54.254 -999 0.065185 0.339446 1.140187
2006-01-17 09:53:58 51°16.21 2°54.253 -999 0.065185 0.339451 1.140187
2006-01-17 09:54:03 51°16.21 2°54.252 -999 0.065185 0.339451 1.173896
2006-01-17 09:54:08 51°16.209 2°54.251 -999 0.065185 0.339451 1.173896
2006-01-17 09:54:13 51°16.209 2°54.25 -999 0.065185 0.339457 1.173896
2006-01-17 09:54:18 51°16.208 2°54.249 -999 0.065185 0.339462 1.173896
2006-01-17 09:54:23 51°16.208 2°54.248 -999 0.065185 0.339462 1.173896
2006-01-17 09:54:28 51°16.207 2°54.246 -999 0.065185 0.339462 1.173896
2006-01-17 09:54:33 51°16.207 2°54.245 -999 0.065185 0.339468 1.173896
2006-01-17 09:54:38 51°16.206 2°54.243 -999 0.065185 0.339468 1.173896
2006-01-17 09:54:43 51°16.206 2°54.242 -999 0.065185 0.339474 1.173896
2006-01-17 09:54:48 51°16.205 2°54.24 -999 0.065185 0.339479 1.140187
2006-01-17 09:54:53 51°16.204 2°54.239 -999 0.065185 0.339479 1.140187
2006-01-17 09:54:58 51°16.204 2°54.239 -999 0.065185 0.339485 1.140187
2006-01-17 09:55:02 51°16.203 2°54.238 -999 0.065185 0.339485 1.173896
2006-01-17 09:55:08 51°16.202 2°54.236 -999 0.065185 0.33949 1.207606
2006-01-17 09:55:13 51°16.201 2°54.235 -999 0.065185 0.339496 1.173896
2006-01-17 09:55:18 51°16.201 2°54.234 -999 0.065185 0.339502 1.140187
2006-01-17 09:55:23 51°16.2 2°54.233 -999 0.065185 0.339502 1.140187
2006-01-17 09:55:28 51°16.2 2°54.232 -999 0.065185 0.339502 1.173896
2006-01-17 09:55:33 51°16.199 2°54.231 -999 0.065185 0.339507 1.173896
2006-01-17 09:55:38 51°16.198 2°54.23 -999 0.065185 0.339507 1.173896
2006-01-17 09:55:43 51°16.197 2°54.229 -999 0.065185 0.339513 1.173896
2006-01-17 09:55:48 51°16.197 2°54.228 -999 0.065185 0.339513 1.173896
2006-01-17 09:55:53 51°16.196 2°54.227 -999 0.065185 0.339513 1.173896
2006-01-17 09:55:58 51°16.195 2°54.226 -999 0.065185 0.339519 1.173896
2006-01-17 09:56:01 51°16.195 2°54.225 -999 0.065185 0.339519 1.173896
2006-01-17 09:56:08 51°16.194 2°54.225 -999 0.065185 0.339524 1.173896
2006-01-17 09:56:13 51°16.193 2°54.224 -999 0.065185 0.33953 1.173896
2006-01-17 09:56:18 51°16.192 2°54.223 -999 0.065185 0.339535 1.173896
2006-01-17 09:56:23 51°16.191 2°54.222 -999 0.065185 0.339535 1.173896
2006-01-17 09:56:28 51°16.191 2°54.222 -999 0.065185 0.339535 1.173896
2006-01-17 09:56:33 51°16.19 2°54.221 -999 0.065185 0.339541 1.140187
2006-01-17 09:56:38 51°16.189 2°54.22 -999 0.065185 0.339541 1.173896
2006-01-17 09:56:43 51°16.188 2°54.219 -999 0.065185 0.339547 1.207606
2006-01-17 09:56:48 51°16.188 2°54.218 -999 0.065185 0.339552 1.173896
2006-01-17 09:56:53 51°16.187 2°54.217 -999 0.065185 0.339552 1.173896
2006-01-17 09:56:58 51°16.187 2°54.216 -999 0.065185 0.339558 1.173896
2006-01-17 09:57:03 51°16.187 2°54.215 -999 0.065185 0.339558 1.173896
2006-01-17 09:57:08 51°16.186 2°54.215 -999 0.065185 0.339569 1.140187
2006-01-17 09:57:13 51°16.185 2°54.214 -999 0.065185 0.339569 1.140187
2006-01-17 09:57:18 51°16.185 2°54.213 -999 0.065185 0.339569 1.173896
2006-01-17 09:57:22 51°16.184 2°54.212 -999 0.065185 0.339569 1.173896
2006-01-17 09:57:28 51°16.183 2°54.211 -999 0.065185 0.339575 1.140187
2006-01-17 09:57:33 51°16.182 2°54.21 -999 0.065185 0.33958 1.173896
2006-01-17 09:57:38 51°16.181 2°54.21 -999 0.065185 0.339586 1.140187
2006-01-17 09:57:42 51°16.181 2°54.209 -999 0.065185 0.339592 1.140187
2006-01-17 09:57:48 51°16.18 2°54.208 -999 0.065185 0.339592 1.173896
2006-01-17 09:57:53 51°16.179 2°54.207 -999 0.065185 0.339592 1.173896
2006-01-17 09:57:58 51°16.178 2°54.206 -999 0.065185 0.339597 1.207606
2006-01-17 09:58:03 51°16.178 2°54.206 -999 0.065185 0.339597 1.173896
2006-01-17 09:58:08 51°16.177 2°54.205 -999 0.065185 0.339603 1.173896
2006-01-17 09:58:13 51°16.176 2°54.204 -999 0.065185 0.339608 1.207606
2006-01-17 09:58:18 51°16.175 2°54.203 -999 0.065185 0.339614 1.140187
2006-01-17 09:58:22 51°16.174 2°54.202 -999 0.065185 0.339614 1.140187
2006-01-17 09:58:28 51°16.174 2°54.201 -999 0.065185 0.339614 1.207606
2006-01-17 09:58:33 51°16.173 2°54.2 -999 0.065185 0.33962 1.207606
2006-01-17 09:58:38 51°16.172 2°54.2 -999 0.065185 0.339625 1.173896
2006-01-17 09:58:43 51°16.171 2°54.199 -999 0.065185 0.339625 1.173896
2006-01-17 09:58:48 51°16.17 2°54.198 -999 0.065185 0.339631 1.207606
2006-01-17 09:58:53 51°16.169 2°54.197 -999 0.065185 0.339631 1.207606
2006-01-17 09:58:58 51°16.169 2°54.196 -999 0.065185 0.339637 1.173896
2006-01-17 09:59:02 51°16.168 2°54.196 -999 0.065185 0.339642 1.140187
2006-01-17 09:59:08 51°16.167 2°54.195 -999 0.065185 0.339648 1.173896
2006-01-17 09:59:13 51°16.166 2°54.194 -999 0.065185 0.339648 1.173896
2006-01-17 09:59:18 51°16.165 2°54.193 -999 0.065185 0.339653 1.140187
2006-01-17 09:59:23 51°16.165 2°54.192 -999 0.065185 0.339653 1.140187
2006-01-17 09:59:28 51°16.164 2°54.191 -999 0.065185 0.339659 1.140187
2006-01-17 09:59:33 51°16.163 2°54.19 -999 0.065185 0.339665 1.173896
2006-01-17 09:59:38 51°16.162 2°54.189 -999 0.065185 0.33967 1.173896
2006-01-17 09:59:43 51°16.161 2°54.189 -999 0.065185 0.33967 1.140187
2006-01-17 09:59:48 51°16.161 2°54.188 -999 0.065185 0.33967 1.173896
2006-01-17 09:59:53 51°16.16 2°54.187 -999 0.065185 0.33967 1.173896
2006-01-17 09:59:58 51°16.159 2°54.186 -999 0.065185 0.339682 1.173896
2006-01-17 10:00:03 51°16.158 2°54.185 -999 0.065185 0.339682 1.140187
2006-01-17 10:00:08 51°16.157 2°54.185 -999 0.065185 0.339687 1.207606
2006-01-17 10:00:13 51°16.156 2°54.184 -999 0.065185 0.339693 1.140187
2006-01-17 10:00:18 51°16.156 2°54.183 -999 0.065185 0.339698 1.173896
2006-01-17 10:00:23 51°16.155 2°54.182 -999 0.065185 0.339698 1.173896
2006-01-17 10:00:28 51°16.154 2°54.181 -999 0.065185 0.339704 1.140187
2006-01-17 10:00:33 51°16.153 2°54.18 -999 0.065185 0.339704 1.173896
2006-01-17 10:00:38 51°16.153 2°54.18 -999 0.065082 0.339158 1.173896
2006-01-17 10:00:42 51°16.152 2°54.179 -999 0.065185 0.339715 1.140187
2006-01-17 10:00:48 51°16.151 2°54.178 -999 0.065185 0.339721 1.140187
2006-01-17 10:00:53 51°16.15 2°54.177 -999 0.065185 0.339721 1.140187
2006-01-17 10:00:58 51°16.15 2°54.176 -999 0.065185 0.339721 1.173896
2006-01-17 10:01:03 51°16.149 2°54.175 -999 0.065185 0.339726 1.173896
2006-01-17 10:01:08 51°16.148 2°54.174 -999 0.065185 0.339732 1.140187
2006-01-17 10:01:13 51°16.147 2°54.174 -999 0.065185 0.339738 1.173896
2006-01-17 10:01:18 51°16.146 2°54.173 -999 0.065185 0.339738 1.173896
2006-01-17 10:01:23 51°16.146 2°54.172 -999 0.065185 0.339738 1.173896
2006-01-17 10:01:28 51°16.145 2°54.171 -999 0.065185 0.339743 1.173896
2006-01-17 10:01:33 51°16.144 2°54.17 -999 0.065185 0.339749 1.173896
2006-01-17 10:01:38 51°16.143 2°54.169 -999 0.065082 0.339197 1.173896
2006-01-17 10:01:43 51°16.142 2°54.168 -999 0.065185 0.33976 1.173896
2006-01-17 10:01:48 51°16.142 2°54.167 -999 0.065082 0.339214 1.173896
2006-01-17 10:01:53 51°16.141 2°54.167 -999 0.065082 0.339214 1.173896
2006-01-17 10:01:58 51°16.14 2°54.165 -999 0.065185 0.339766 1.173896
2006-01-17 10:02:02 51°16.14 2°54.165 -999 0.065082 0.339214 1.173896
2006-01-17 10:02:08 51°16.139 2°54.163 -999 0.065185 0.339771 1.207606
2006-01-17 10:02:13 51°16.138 2°54.163 -999 0.065082 0.339225 1.173896
2006-01-17 10:02:18 51°16.137 2°54.162 -999 0.065082 0.339231 1.140187
2006-01-17 10:02:22 51°16.137 2°54.161 -999 0.065082 0.339231 1.140187
2006-01-17 10:02:28 51°16.136 2°54.16 -999 0.065082 0.339236 1.173896
2006-01-17 10:02:33 51°16.135 2°54.159 -999 0.065082 0.339236 1.173896
2006-01-17 10:02:38 51°16.134 2°54.158 -999 0.065082 0.339242 1.207606
2006-01-17 10:02:42 51°16.134 2°54.158 -999 0.065082 0.339248 1.207606
2006-01-17 10:02:48 51°16.133 2°54.157 -999 0.065082 0.339248 1.207606
2006-01-17 10:02:53 51°16.133 2°54.156 -999 0.065082 0.339248 1.207606
2006-01-17 10:02:58 51°16.132 2°54.155 -999 0.065082 0.339259 1.140187
2006-01-17 10:03:03 51°16.131 2°54.154 -999 0.065082 0.339259 1.173896
2006-01-17 10:03:08 51°16.13 2°54.153 -999 0.065082 0.339264 1.207606
2006-01-17 10:03:13 51°16.13 2°54.152 -999 0.065082 0.339264 1.173896
2006-01-17 10:03:18 51°16.129 2°54.151 -999 0.065082 0.33927 1.207606
2006-01-17 10:03:23 51°16.129 2°54.151 -999 0.065082 0.33927 1.207606
2006-01-17 10:03:28 51°16.128 2°54.149 -999 0.065082 0.339276 1.173896
2006-01-17 10:03:33 51°16.127 2°54.149 -999 0.065082 0.339281 1.173896
2006-01-17 10:03:38 51°16.127 2°54.148 -999 0.065082 0.339281 1.207606
2006-01-17 10:03:43 51°16.126 2°54.147 -999 0.065082 0.339287 1.173896
2006-01-17 10:03:48 51°16.126 2°54.146 -999 0.065082 0.339293 1.173896
2006-01-17 10:03:53 51°16.125 2°54.145 -999 0.065082 0.339293 1.173896
2006-01-17 10:03:58 51°16.125 2°54.144 -999 0.065082 0.339298 1.173896
2006-01-17 10:04:02 51°16.124 2°54.144 -999 0.065082 0.339304 1.173896
2006-01-17 10:04:08 51°16.123 2°54.142 -999 0.065082 0.339309 1.173896
2006-01-17 10:04:13 51°16.123 2°54.142 -999 0.065082 0.339309 1.173896
2006-01-17 10:04:18 51°16.122 2°54.14 -999 0.065082 0.339321 1.173896
2006-01-17 10:04:22 51°16.122 2°54.14 -999 0.065082 0.339321 1.173896
2006-01-17 10:04:28 51°16.121 2°54.139 -999 0.065082 0.339321 1.173896
2006-01-17 10:04:33 51°16.121 2°54.138 -999 0.065082 0.339326 1.173896
2006-01-17 10:04:38 51°16.12 2°54.137 -999 0.065082 0.339332 1.173896
2006-01-17 10:04:43 51°16.119 2°54.136 -999 0.065082 0.339332 1.207606
2006-01-17 10:04:48 51°16.119 2°54.135 -999 0.065082 0.339343 1.207606
2006-01-17 10:04:53 51°16.118 2°54.134 -999 0.065082 0.339343 1.207606
2006-01-17 10:04:58 51°16.118 2°54.133 -999 0.065082 0.339349 1.173896
2006-01-17 10:05:02 51°16.117 2°54.132 -999 0.065082 0.339349 1.173896
2006-01-17 10:05:08 51°16.116 2°54.131 -999 0.065082 0.339354 1.173896
2006-01-17 10:05:13 51°16.116 2°54.13 -999 0.065082 0.33936 1.173896
2006-01-17 10:05:18 51°16.115 2°54.129 -999 0.065082 0.339366 1.173896
2006-01-17 10:05:22 51°16.114 2°54.128 -999 0.065082 0.339366 1.173896
2006-01-17 10:05:28 51°16.114 2°54.127 -999 0.065082 0.339371 1.173896
2006-01-17 10:05:33 51°16.113 2°54.126 -999 0.065082 0.339377 1.207606
2006-01-17 10:05:38 51°16.113 2°54.125 -999 0.065082 0.339382 1.173896
2006-01-17 10:05:42 51°16.112 2°54.125 -999 0.065082 0.339388 1.173896
2006-01-17 10:05:48 51°16.111 2°54.124 -999 0.065082 0.339394 1.140187
2006-01-17 10:05:53 51°16.111 2°54.123 -999 0.065082 0.339394 1.140187
2006-01-17 10:05:58 51°16.11 2°54.122 -999 0.065082 0.339399 1.173896
2006-01-17 10:06:02 51°16.11 2°54.121 -999 0.065082 0.339405 1.173896
2006-01-17 10:06:08 51°16.109 2°54.12 -999 0.065082 0.339405 1.173896
2006-01-17 10:06:13 51°16.109 2°54.119 -999 0.065082 0.339416 1.140187
2006-01-17 10:06:18 51°16.108 2°54.118 -999 0.065082 0.339422 1.173896
2006-01-17 10:06:23 51°16.107 2°54.117 -999 0.065082 0.339422 1.173896
2006-01-17 10:06:29 51°16.106 2°54.116 -999 0.065082 0.339427 1.173896
2006-01-17 10:06:34 51°16.106 2°54.115 -999 0.065082 0.339433 1.173896
2006-01-17 10:06:39 51°16.105 2°54.115 -999 0.065082 0.339439 1.173896
2006-01-17 10:06:43 51°16.105 2°54.114 -999 0.065082 0.339444 1.173896
2006-01-17 10:06:49 51°16.104 2°54.113 -999 0.065082 0.33945 1.173896
2006-01-17 10:06:54 51°16.103 2°54.112 -999 0.065082 0.33945 1.173896
2006-01-17 10:06:58 51°16.103 2°54.111 -999 0.065082 0.339456 1.173896
2006-01-17 10:07:03 51°16.102 2°54.11 -999 0.065082 0.339461 1.173896
2006-01-17 10:07:09 51°16.102 2°54.109 -999 0.065082 0.339467 1.173896
2006-01-17 10:07:14 51°16.101 2°54.109 -999 0.065082 0.339472 1.173896
2006-01-17 10:07:19 51°16.1 2°54.108 -999 0.065082 0.339478 1.173896
2006-01-17 10:07:23 51°16.1 2°54.107 -999 0.065082 0.339478 1.173896
2006-01-17 10:07:27 51°16.099 2°54.106 -999 0.065082 0.339484 1.207606
2006-01-17 10:07:34 51°16.099 2°54.105 -999 0.065082 0.339489 1.173896
2006-01-17 10:07:39 51°16.098 2°54.104 -999 0.065082 0.339495 1.140187
2006-01-17 10:07:43 51°16.098 2°54.104 -999 0.065082 0.339506 1.140187
2006-01-17 10:07:47 51°16.097 2°54.103 -999 0.065082 0.339506 1.173896
2006-01-17 10:07:53 51°16.097 2°54.101 -999 0.065082 0.339506 1.173896
2006-01-17 10:07:59 51°16.096 2°54.1 -999 0.065082 0.339512 1.173896
2006-01-17 10:08:03 51°16.097 2°54.098 -999 0.065082 0.339512 1.207606
2006-01-17 10:08:07 51°16.098 2°54.096 -999 0.065082 0.339518 1.207606
2006-01-17 10:08:13 51°16.099 2°54.094 -999 0.065082 0.339518 1.207606
2006-01-17 10:08:18 51°16.102 2°54.091 -999 0.065082 0.339523 1.207606
2006-01-17 10:08:23 51°16.104 2°54.089 -999 0.065082 0.339523 1.207606
2006-01-17 10:08:28 51°16.108 2°54.087 -999 0.065082 0.339529 1.173896
2006-01-17 10:08:34 51°16.112 2°54.086 -999 0.065082 0.339534 1.207606
2006-01-17 10:08:38 51°16.115 2°54.086 -999 0.065082 0.339546 1.5447
2006-01-17 10:08:43 51°16.119 2°54.086 -999 0.065082 0.339557 1.5447
2006-01-17 10:08:49 51°16.124 2°54.088 -999 0.065082 0.339568 1.51099
2006-01-17 10:08:54 51°16.128 2°54.091 -999 0.065082 0.339568 1.51099
2006-01-17 10:08:58 51°16.131 2°54.093 -999 0.065082 0.339574 1.578409
2006-01-17 10:09:03 51°16.135 2°54.098 -999 0.065082 0.339585 1.51099
2006-01-17 10:09:08 51°16.139 2°54.103 -999 0.065082 0.339591 1.51099
2006-01-17 10:09:13 51°16.142 2°54.109 -999 0.065082 0.339602 1.612118
2006-01-17 10:09:18 51°16.147 2°54.114 -999 0.065082 0.339608 1.612118
2006-01-17 10:09:23 51°16.151 2°54.12 -999 0.065082 0.339608 1.612118
2006-01-17 10:09:27 51°16.154 2°54.126 -999 0.065082 0.339608 1.645828
2006-01-17 10:09:33 51°16.159 2°54.134 -999 0.065082 0.339608 1.645828
2006-01-17 10:09:38 51°16.164 2°54.14 -999 0.065082 0.339613 1.645828
2006-01-17 10:09:43 51°16.168 2°54.148 -999 0.064979 0.339066 1.612118
2006-01-17 10:09:47 51°16.172 2°54.153 -999 0.065082 0.339625 1.612118
2006-01-17 10:09:53 51°16.179 2°54.161 -999 0.065082 0.339625 1.612118
2006-01-17 10:09:58 51°16.184 2°54.169 -999 0.065082 0.33963 1.645828
2006-01-17 10:10:03 51°16.189 2°54.176 -999 0.065082 0.339641 1.645828
2006-01-17 10:10:08 51°16.195 2°54.182 -999 0.064979 0.339094 1.645828
2006-01-17 10:10:13 51°16.2 2°54.189 -999 0.065082 0.339653 1.645828
2006-01-17 10:10:18 51°16.206 2°54.196 -999 0.064979 0.339106 1.645828
2006-01-17 10:10:23 51°16.212 2°54.202 -999 0.064979 0.339106 1.645828
2006-01-17 10:10:28 51°16.218 2°54.209 -999 0.065082 0.339664 1.645828
2006-01-17 10:10:33 51°16.224 2°54.215 -999 0.065082 0.339664 1.645828
2006-01-17 10:10:38 51°16.23 2°54.221 -999 0.064979 0.339117 1.645828
2006-01-17 10:10:43 51°16.235 2°54.226 -999 0.064979 0.339117 1.443571
2006-01-17 10:10:47 51°16.239 2°54.231 -999 0.064979 0.339123 1.443571
2006-01-17 10:10:53 51°16.245 2°54.237 -999 0.064979 0.339123 1.443571
2006-01-17 10:10:58 51°16.249 2°54.242 -999 0.064979 0.339128 1.5447
2006-01-17 10:11:03 51°16.254 2°54.246 -999 0.064979 0.339134 1.477281
2006-01-17 10:11:08 51°16.258 2°54.25 -999 0.064979 0.339139 1.51099
2006-01-17 10:11:13 51°16.262 2°54.254 -999 0.064979 0.339145 1.51099
2006-01-17 10:11:18 51°16.265 2°54.258 -999 0.064979 0.339145 1.477281
2006-01-17 10:11:23 51°16.269 2°54.262 -999 0.064979 0.339145 1.477281
2006-01-17 10:11:28 51°16.273 2°54.265 -999 0.064979 0.339151 1.51099
2006-01-17 10:11:33 51°16.276 2°54.268 -999 0.064979 0.339156 1.477281
2006-01-17 10:11:38 51°16.278 2°54.272 -999 0.064979 0.339156 1.477281
2006-01-17 10:11:43 51°16.281 2°54.276 -999 0.064979 0.339162 1.477281
2006-01-17 10:11:47 51°16.283 2°54.278 -999 0.064979 0.339168 1.409862
2006-01-17 10:11:53 51°16.286 2°54.282 -999 0.064979 0.339168 1.409862
2006-01-17 10:11:58 51°16.288 2°54.285 -999 0.064979 0.339173 1.443571
2006-01-17 10:12:03 51°16.29 2°54.289 -999 0.064979 0.339179 1.443571
2006-01-17 10:12:07 51°16.291 2°54.292 -999 0.064979 0.339184 1.376153
2006-01-17 10:12:13 51°16.293 2°54.296 -999 0.064979 0.33919 1.443571
2006-01-17 10:12:18 51°16.295 2°54.299 -999 0.064979 0.339196 1.443571
2006-01-17 10:12:23 51°16.296 2°54.302 -999 0.064979 0.339196 1.443571
2006-01-17 10:12:27 51°16.297 2°54.305 -999 0.064979 0.339201 1.409862
2006-01-17 10:12:33 51°16.298 2°54.308 -999 0.064979 0.339207 1.409862
2006-01-17 10:12:38 51°16.299 2°54.311 -999 0.064979 0.339213 1.443571
2006-01-17 10:12:43 51°16.3 2°54.314 -999 0.064979 0.339213 1.51099
2006-01-17 10:12:48 51°16.301 2°54.317 -999 0.064979 0.339218 1.477281
2006-01-17 10:12:53 51°16.301 2°54.319 -999 0.064979 0.339218 1.477281
2006-01-17 10:12:58 51°16.302 2°54.322 -999 0.064979 0.339224 1.409862
2006-01-17 10:13:03 51°16.303 2°54.324 -999 0.064979 0.339224 1.409862
2006-01-17 10:13:07 51°16.303 2°54.326 -999 0.064979 0.339224 1.443571
2006-01-17 10:13:13 51°16.303 2°54.329 -999 0.064979 0.339229 1.477281
2006-01-17 10:13:18 51°16.303 2°54.332 -999 0.064979 0.339241 1.477281
2006-01-17 10:13:23 51°16.304 2°54.334 -999 0.064979 0.339241 1.477281
2006-01-17 10:13:27 51°16.304 2°54.336 -999 0.064979 0.339246 1.477281
2006-01-17 10:13:33 51°16.304 2°54.338 -999 0.064979 0.339246 1.51099
2006-01-17 10:13:38 51°16.304 2°54.34 -999 0.064979 0.339252 1.51099
2006-01-17 10:13:43 51°16.304 2°54.342 -999 0.064979 0.339258 1.443571
2006-01-17 10:13:47 51°16.304 2°54.344 -999 0.064979 0.339263 1.477281
2006-01-17 10:13:53 51°16.304 2°54.346 -999 0.064979 0.339263 1.477281
2006-01-17 10:13:57 51°16.304 2°54.348 -999 0.064979 0.339269 1.477281
2006-01-17 10:14:03 51°16.304 2°54.35 -999 0.064979 0.339269 1.477281
2006-01-17 10:14:07 51°16.303 2°54.352 -999 0.064979 0.339274 1.477281
2006-01-17 10:14:13 51°16.303 2°54.354 -999 0.064979 0.339274 1.5447
2006-01-17 10:14:18 51°16.303 2°54.356 -999 0.064979 0.33928 1.612118
2006-01-17 10:14:23 51°16.302 2°54.357 -999 0.064979 0.33928 1.612118
2006-01-17 10:14:27 51°16.302 2°54.359 -999 0.064979 0.339286 1.578409
2006-01-17 10:14:33 51°16.302 2°54.361 -999 0.064979 0.339291 1.51099
2006-01-17 10:14:37 51°16.301 2°54.362 -999 0.064979 0.339297 1.477281
2006-01-17 10:14:43 51°16.301 2°54.364 -999 0.064979 0.339297 1.51099
2006-01-17 10:14:47 51°16.301 2°54.365 -999 0.064979 0.339303 1.51099
2006-01-17 10:14:53 51°16.3 2°54.367 -999 0.064979 0.339303 1.51099
2006-01-17 10:14:57 51°16.3 2°54.368 -999 0.064979 0.339308 1.578409
2006-01-17 10:15:03 51°16.299 2°54.369 -999 0.064979 0.339308 1.578409
2006-01-17 10:15:07 51°16.299 2°54.371 -999 0.064979 0.339314 1.612118
2006-01-17 10:15:13 51°16.298 2°54.372 -999 0.064979 0.33932 1.612118
2006-01-17 10:15:17 51°16.298 2°54.373 -999 0.064979 0.33932 1.645828
2006-01-17 10:15:23 51°16.297 2°54.375 -999 0.064979 0.33932 1.645828
2006-01-17 10:15:28 51°16.296 2°54.376 -999 0.064979 0.339325 1.645828
2006-01-17 10:15:33 51°16.296 2°54.377 -999 0.064979 0.339331 1.612118
2006-01-17 10:15:37 51°16.295 2°54.378 -999 0.064979 0.339336 1.645828
2006-01-17 10:15:42 51°16.294 2°54.379 -999 0.064979 0.339336 1.645828
2006-01-17 10:15:47 51°16.294 2°54.38 -999 0.064979 0.339348 1.645828
2006-01-17 10:15:53 51°16.293 2°54.381 -999 0.064979 0.339348 1.645828
2006-01-17 10:15:57 51°16.292 2°54.382 -999 0.064979 0.339348 1.578409
2006-01-17 10:16:03 51°16.291 2°54.383 -999 0.064979 0.339353 1.477281
2006-01-17 10:16:07 51°16.291 2°54.384 -999 0.064979 0.339353 1.5447
2006-01-17 10:16:13 51°16.29 2°54.385 -999 0.064979 0.339359 1.612118
2006-01-17 10:16:18 51°16.289 2°54.386 -999 0.064979 0.339365 1.645828
2006-01-17 10:16:22 51°16.289 2°54.387 -999 0.064979 0.339365 1.645828
2006-01-17 10:16:27 51°16.288 2°54.387 -999 0.064979 0.339365 1.645828
2006-01-17 10:16:33 51°16.287 2°54.389 -999 0.064979 0.33937 1.645828
2006-01-17 10:16:38 51°16.286 2°54.389 -999 0.064979 0.339376 1.612118
2006-01-17 10:16:43 51°16.286 2°54.39 -999 0.064979 0.339382 1.5447
2006-01-17 10:16:48 51°16.285 2°54.391 -999 0.064979 0.339382 1.477281
2006-01-17 10:16:53 51°16.284 2°54.392 -999 0.064979 0.339382 1.477281
2006-01-17 10:16:58 51°16.283 2°54.392 -999 0.064979 0.339387 1.645828
2006-01-17 10:17:03 51°16.282 2°54.393 -999 0.064979 0.339393 1.645828
2006-01-17 10:17:07 51°16.282 2°54.393 -999 0.064979 0.339398 1.645828
2006-01-17 10:17:13 51°16.281 2°54.394 -999 0.064979 0.339404 1.645828
2006-01-17 10:17:18 51°16.28 2°54.394 -999 0.064979 0.33941 1.645828
2006-01-17 10:17:23 51°16.279 2°54.395 -999 0.064979 0.33941 1.645828
2006-01-17 10:17:28 51°16.278 2°54.396 -999 0.064979 0.339415 1.645828
2006-01-17 10:17:31 51°16.277 2°54.396 -999 0.064979 0.339415 1.645828
2006-01-17 10:17:38 51°16.276 2°54.396 -999 0.064979 0.339421 1.645828
2006-01-17 10:17:43 51°16.275 2°54.397 -999 0.064979 0.339427 1.51099
2006-01-17 10:17:48 51°16.274 2°54.397 -999 0.064979 0.339432 1.645828
2006-01-17 10:17:53 51°16.273 2°54.398 -999 0.064979 0.339432 1.645828
2006-01-17 10:17:58 51°16.272 2°54.398 -999 0.064979 0.339438 1.612118
2006-01-17 10:18:03 51°16.271 2°54.398 -999 0.064979 0.339438 1.645828
2006-01-17 10:18:07 51°16.27 2°54.399 -999 0.064876 0.33889 1.5447
2006-01-17 10:18:13 51°16.269 2°54.399 -999 0.064979 0.339444 1.342443
2006-01-17 10:18:17 51°16.268 2°54.399 -999 0.064979 0.339449 1.376153
2006-01-17 10:18:23 51°16.267 2°54.4 -999 0.064979 0.339449 1.376153
2006-01-17 10:18:27 51°16.266 2°54.4 -999 0.064979 0.339455 1.308734
2006-01-17 10:18:33 51°16.265 2°54.4 -999 0.064979 0.339455 1.308734
2006-01-17 10:18:38 51°16.264 2°54.401 -999 0.064876 0.338907 1.275024
2006-01-17 10:18:42 51°16.263 2°54.401 -999 0.064979 0.339466 1.275024
2006-01-17 10:18:47 51°16.262 2°54.401 -999 0.064979 0.339472 1.275024
2006-01-17 10:18:53 51°16.261 2°54.401 -999 0.064979 0.339472 1.275024
2006-01-17 10:18:58 51°16.26 2°54.401 -999 0.064979 0.339477 1.409862
2006-01-17 10:19:03 51°16.259 2°54.401 -999 0.064876 0.338924 1.342443
2006-01-17 10:19:07 51°16.258 2°54.401 -999 0.064979 0.339483 1.342443
2006-01-17 10:19:11 51°16.258 2°54.401 -999 0.064876 0.338935 1.376153
2006-01-17 10:19:18 51°16.256 2°54.401 -999 0.064979 0.339494 1.342443
2006-01-17 10:19:23 51°16.255 2°54.401 -999 0.064979 0.339494 1.342443
2006-01-17 10:19:27 51°16.254 2°54.402 -999 0.064979 0.3395 1.409862
2006-01-17 10:19:33 51°16.253 2°54.401 -999 0.064876 0.338947 1.443571
2006-01-17 10:19:37 51°16.253 2°54.401 -999 0.064876 0.338952 1.409862
2006-01-17 10:19:43 51°16.251 2°54.401 -999 0.064876 0.338958 1.207606
2006-01-17 10:19:47 51°16.251 2°54.401 -999 0.064876 0.338963 1.207606
2006-01-17 10:19:53 51°16.249 2°54.401 -999 0.064876 0.338963 1.207606
2006-01-17 10:19:57 51°16.249 2°54.401 -999 0.064876 0.338963 1.207606
2006-01-17 10:20:03 51°16.248 2°54.401 -999 0.064876 0.338963 1.207606
2006-01-17 10:20:08 51°16.247 2°54.401 -999 0.064876 0.338969 1.241315
2006-01-17 10:20:13 51°16.246 2°54.401 -999 0.064876 0.338975 1.207606
2006-01-17 10:20:17 51°16.245 2°54.401 -999 0.064876 0.33898 1.207606
2006-01-17 10:20:23 51°16.244 2°54.4 -999 0.064876 0.33898 1.207606
2006-01-17 10:20:27 51°16.243 2°54.4 -999 0.064876 0.338986 1.207606
2006-01-17 10:20:33 51°16.242 2°54.4 -999 0.064876 0.338992 1.207606
2006-01-17 10:20:38 51°16.241 2°54.4 -999 0.064876 0.338997 1.308734
2006-01-17 10:20:43 51°16.24 2°54.399 -999 0.064876 0.338997 1.241315
2006-01-17 10:20:47 51°16.239 2°54.399 -999 0.064876 0.339003 1.241315
2006-01-17 10:20:53 51°16.238 2°54.399 -999 0.064876 0.339003 1.241315
2006-01-17 10:20:58 51°16.237 2°54.399 -999 0.064876 0.339009 1.207606
2006-01-17 10:21:03 51°16.236 2°54.398 -999 0.064876 0.339009 1.207606
2006-01-17 10:21:07 51°16.235 2°54.398 -999 0.064876 0.339014 1.173896
2006-01-17 10:21:13 51°16.234 2°54.398 -999 0.064876 0.33902 1.173896
2006-01-17 10:21:17 51°16.233 2°54.398 -999 0.064876 0.339025 1.173896
2006-01-17 10:21:23 51°16.233 2°54.397 -999 0.064876 0.339025 1.173896
2006-01-17 10:21:27 51°16.232 2°54.397 -999 0.064876 0.339025 1.173896
2006-01-17 10:21:33 51°16.231 2°54.397 -999 0.064876 0.339025 1.173896
2006-01-17 10:21:37 51°16.23 2°54.396 -999 0.064876 0.339031 1.173896
2006-01-17 10:21:43 51°16.229 2°54.396 -999 0.064876 0.339031 1.173896
2006-01-17 10:21:48 51°16.228 2°54.396 -999 0.064876 0.339042 1.173896
2006-01-17 10:21:53 51°16.227 2°54.395 -999 0.064876 0.339042 1.173896
2006-01-17 10:21:57 51°16.226 2°54.395 -999 0.064876 0.339048 1.173896
2006-01-17 10:22:03 51°16.225 2°54.395 -999 0.064876 0.339048 1.173896
2006-01-17 10:22:07 51°16.224 2°54.394 -999 0.064876 0.339054 1.173896
2006-01-17 10:22:13 51°16.224 2°54.394 -999 0.064876 0.339054 1.173896
2006-01-17 10:22:18 51°16.223 2°54.393 -999 0.064876 0.339059 1.173896
2006-01-17 10:22:22 51°16.223 2°54.393 -999 0.064876 0.339059 1.173896
2006-01-17 10:22:27 51°16.222 2°54.393 -999 0.064876 0.339065 1.173896
2006-01-17 10:22:33 51°16.221 2°54.392 -999 0.064876 0.339065 1.173896
2006-01-17 10:22:37 51°16.221 2°54.392 -999 0.064876 0.339076 1.173896
2006-01-17 10:22:43 51°16.22 2°54.392 -999 0.064876 0.339076 1.173896
2006-01-17 10:22:48 51°16.219 2°54.391 -999 0.064876 0.339082 1.173896
2006-01-17 10:22:53 51°16.218 2°54.391 -999 0.064876 0.339082 1.173896
2006-01-17 10:22:58 51°16.217 2°54.391 -999 0.064876 0.339087 1.173896
2006-01-17 10:23:03 51°16.216 2°54.39 -999 0.064876 0.339087 1.173896
2006-01-17 10:23:08 51°16.215 2°54.39 -999 0.064876 0.339087 1.173896
2006-01-17 10:23:13 51°16.215 2°54.389 -999 0.064876 0.339093 1.140187
2006-01-17 10:23:18 51°16.214 2°54.389 -999 0.064876 0.339099 1.173896
2006-01-17 10:23:23 51°16.213 2°54.388 -999 0.064876 0.339099 1.173896
2006-01-17 10:23:27 51°16.213 2°54.388 -999 0.064876 0.339104 1.173896
2006-01-17 10:23:33 51°16.212 2°54.388 -999 0.064876 0.33911 1.275024
2006-01-17 10:23:37 51°16.211 2°54.387 -999 0.064876 0.33911 1.173896
2006-01-17 10:23:43 51°16.21 2°54.387 -999 0.064876 0.339116 1.140187
2006-01-17 10:23:47 51°16.209 2°54.387 -999 0.064876 0.339121 1.140187
2006-01-17 10:23:53 51°16.209 2°54.386 -999 0.064876 0.339121 1.140187
2006-01-17 10:23:58 51°16.208 2°54.386 -999 0.064876 0.339121 1.140187
2006-01-17 10:24:03 51°16.207 2°54.385 -999 0.064876 0.339127 1.140187
2006-01-17 10:24:07 51°16.206 2°54.385 -999 0.064876 0.339133 1.140187
2006-01-17 10:24:13 51°16.205 2°54.384 -999 0.064876 0.339133 1.140187
2006-01-17 10:24:18 51°16.204 2°54.384 -999 0.064876 0.339138 1.140187
2006-01-17 10:24:23 51°16.204 2°54.384 -999 0.064876 0.339138 1.140187
2006-01-17 10:24:27 51°16.203 2°54.383 -999 0.064876 0.339144 1.140187
2006-01-17 10:24:33 51°16.202 2°54.382 -999 0.064876 0.339144 1.140187
2006-01-17 10:24:38 51°16.202 2°54.382 -999 0.064876 0.339149 1.140187
2006-01-17 10:24:43 51°16.201 2°54.382 -999 0.064876 0.339155 1.173896
2006-01-17 10:24:47 51°16.2 2°54.382 -999 0.064876 0.339161 1.173896
2006-01-17 10:24:53 51°16.2 2°54.381 -999 0.064876 0.339161 1.173896
2006-01-17 10:24:58 51°16.199 2°54.381 -999 0.064876 0.339155 1.140187
2006-01-17 10:25:03 51°16.198 2°54.38 -999 0.064876 0.339166 1.140187
2006-01-17 10:25:08 51°16.198 2°54.38 -999 0.064876 0.339166 1.140187
2006-01-17 10:25:13 51°16.197 2°54.38 -999 0.064876 0.339172 1.140187
2006-01-17 10:25:18 51°16.196 2°54.379 -999 0.064876 0.339178 1.140187
2006-01-17 10:25:23 51°16.196 2°54.379 -999 0.064876 0.339178 1.140187
2006-01-17 10:25:27 51°16.195 2°54.378 -999 0.064876 0.339183 1.140187
2006-01-17 10:25:33 51°16.194 2°54.378 -999 0.064876 0.339183 1.140187
2006-01-17 10:25:37 51°16.194 2°54.378 -999 0.064876 0.339189 1.140187
2006-01-17 10:25:42 51°16.193 2°54.377 -999 0.064876 0.339195 1.173896
2006-01-17 10:25:47 51°16.192 2°54.377 -999 0.064876 0.3392 1.207606
2006-01-17 10:25:53 51°16.191 2°54.377 -999 0.064876 0.3392 1.207606
2006-01-17 10:25:57 51°16.191 2°54.376 -999 0.064876 0.339206 1.241315
2006-01-17 10:26:03 51°16.19 2°54.376 -999 0.064876 0.339206 1.207606
2006-01-17 10:26:07 51°16.189 2°54.375 -999 0.064876 0.339211 1.207606
2006-01-17 10:26:13 51°16.188 2°54.375 -999 0.064876 0.339217 1.207606
2006-01-17 10:26:18 51°16.188 2°54.375 -999 0.064876 0.339217 1.207606
2006-01-17 10:26:23 51°16.187 2°54.374 -999 0.064876 0.339217 1.207606
2006-01-17 10:26:27 51°16.187 2°54.374 -999 0.064876 0.339217 1.308734
2006-01-17 10:26:33 51°16.186 2°54.373 -999 0.064876 0.339228 1.342443
2006-01-17 10:26:38 51°16.185 2°54.373 -999 0.064876 0.339228 1.308734
2006-01-17 10:26:43 51°16.184 2°54.372 -999 0.064876 0.339234 1.308734
2006-01-17 10:26:47 51°16.184 2°54.372 -999 0.064876 0.33924 1.308734
2006-01-17 10:26:53 51°16.183 2°54.372 -999 0.064876 0.33924 1.308734
2006-01-17 10:26:57 51°16.182 2°54.371 -999 0.064876 0.339245 1.275024
2006-01-17 10:27:03 51°16.181 2°54.371 -999 0.064876 0.339245 1.241315
2006-01-17 10:27:07 51°16.181 2°54.371 -999 0.064876 0.339251 1.275024
2006-01-17 10:27:13 51°16.18 2°54.37 -999 0.064876 0.339251 1.241315
2006-01-17 10:27:18 51°16.179 2°54.37 -999 0.064876 0.339257 1.241315
2006-01-17 10:27:23 51°16.179 2°54.369 -999 0.064876 0.339257 1.241315
2006-01-17 10:27:27 51°16.178 2°54.369 -999 0.064876 0.339268 1.275024
2006-01-17 10:27:33 51°16.177 2°54.369 -999 0.064876 0.339268 1.241315
2006-01-17 10:27:37 51°16.177 2°54.369 -999 0.064876 0.339268 1.207606
2006-01-17 10:27:43 51°16.176 2°54.368 -999 0.064876 0.339274 1.207606
2006-01-17 10:27:47 51°16.175 2°54.368 -999 0.064876 0.339279 1.207606
2006-01-17 10:27:53 51°16.174 2°54.368 -999 0.064876 0.339279 1.207606
2006-01-17 10:27:57 51°16.174 2°54.367 -999 0.064876 0.339279 1.275024
2006-01-17 10:28:03 51°16.173 2°54.367 -999 0.064876 0.339285 1.140187
2006-01-17 10:28:07 51°16.173 2°54.367 -999 0.064876 0.33929 1.140187
2006-01-17 10:28:13 51°16.172 2°54.366 -999 0.064773 0.338742 1.140187
2006-01-17 10:28:17 51°16.171 2°54.366 -999 0.064876 0.339296 1.207606
2006-01-17 10:28:23 51°16.17 2°54.366 -999 0.064876 0.339296 1.207606
2006-01-17 10:28:27 51°16.17 2°54.365 -999 0.064876 0.339296 1.207606
2006-01-17 10:28:33 51°16.169 2°54.365 -999 0.064876 0.339307 1.207606
2006-01-17 10:28:38 51°16.168 2°54.365 -999 0.064773 0.338754 1.173896
2006-01-17 10:28:43 51°16.167 2°54.364 -999 0.064876 0.339313 1.106477
2006-01-17 10:28:48 51°16.167 2°54.364 -999 0.064876 0.339313 1.106477
2006-01-17 10:28:53 51°16.166 2°54.364 -999 0.064876 0.339313 1.106477
2006-01-17 10:28:58 51°16.165 2°54.364 -999 0.064876 0.339319 1.106477
2006-01-17 10:29:03 51°16.165 2°54.363 -999 0.064876 0.339319 1.106477
2006-01-17 10:29:07 51°16.164 2°54.363 -999 0.064773 0.338776 1.106477
2006-01-17 10:29:13 51°16.163 2°54.363 -999 0.064773 0.338782 1.106477
2006-01-17 10:29:18 51°16.163 2°54.362 -999 0.064876 0.339336 1.106477
2006-01-17 10:29:23 51°16.162 2°54.362 -999 0.064876 0.339336 1.106477
2006-01-17 10:29:27 51°16.161 2°54.362 -999 0.064876 0.339341 1.106477
2006-01-17 10:29:33 51°16.161 2°54.362 -999 0.064876 0.339341 1.106477
2006-01-17 10:29:38 51°16.16 2°54.361 -999 0.064773 0.338793 1.106477
2006-01-17 10:29:43 51°16.159 2°54.361 -999 0.064876 0.339353 1.207606
2006-01-17 10:29:47 51°16.159 2°54.361 -999 0.064773 0.338799 1.106477
2006-01-17 10:29:52 51°16.158 2°54.36 -999 0.064773 0.338799 1.106477
2006-01-17 10:29:58 51°16.157 2°54.36 -999 0.064876 0.339358 1.106477
2006-01-17 10:30:03 51°16.156 2°54.36 -999 0.064773 0.33881 1.106477
2006-01-17 10:30:07 51°16.156 2°54.36 -999 0.064773 0.33881 1.106477
2006-01-17 10:30:13 51°16.155 2°54.36 -999 0.064773 0.338816 1.106477
2006-01-17 10:30:17 51°16.154 2°54.359 -999 0.064773 0.338821 1.106477
2006-01-17 10:30:23 51°16.153 2°54.359 -999 0.064773 0.338821 1.106477
2006-01-17 10:30:28 51°16.153 2°54.359 -999 0.064773 0.338821 1.106477
2006-01-17 10:30:33 51°16.152 2°54.359 -999 0.064773 0.338832 1.106477
2006-01-17 10:30:38 51°16.151 2°54.358 -999 0.064773 0.338832 1.106477
2006-01-17 10:30:43 51°16.151 2°54.358 -999 0.064773 0.338838 1.106477
2006-01-17 10:30:47 51°16.15 2°54.358 -999 0.064876 0.339398 1.106477
2006-01-17 10:30:53 51°16.149 2°54.357 -999 0.064876 0.339398 1.106477
2006-01-17 10:30:58 51°16.149 2°54.357 -999 0.064773 0.338844 1.106477
2006-01-17 10:31:03 51°16.148 2°54.357 -999 0.064773 0.338849 1.106477
2006-01-17 10:31:07 51°16.147 2°54.357 -999 0.064773 0.338849 1.106477
2006-01-17 10:31:11 51°16.147 2°54.356 -999 0.064773 0.338855 1.106477
2006-01-17 10:31:18 51°16.146 2°54.356 -999 0.064773 0.338855 1.106477
2006-01-17 10:31:23 51°16.145 2°54.356 -999 0.064773 0.338855 1.106477
2006-01-17 10:31:27 51°16.144 2°54.355 -999 0.064773 0.338861 1.106477
2006-01-17 10:31:33 51°16.143 2°54.355 -999 0.064773 0.338866 1.106477
2006-01-17 10:31:38 51°16.143 2°54.355 -999 0.064773 0.338866 1.106477
2006-01-17 10:31:43 51°16.142 2°54.354 -999 0.064773 0.338872 1.106477
2006-01-17 10:31:48 51°16.141 2°54.354 -999 0.064773 0.338878 1.106477
2006-01-17 10:31:53 51°16.141 2°54.354 -999 0.064773 0.338878 1.106477
2006-01-17 10:31:58 51°16.14 2°54.354 -999 0.064773 0.338883 1.106477
2006-01-17 10:32:03 51°16.139 2°54.353 -999 0.064773 0.338883 1.106477
2006-01-17 10:32:07 51°16.138 2°54.353 -999 0.064773 0.338889 1.106477
2006-01-17 10:32:13 51°16.138 2°54.353 -999 0.064773 0.338889 1.106477
2006-01-17 10:32:18 51°16.137 2°54.353 -999 0.064773 0.338895 1.106477
2006-01-17 10:32:23 51°16.136 2°54.352 -999 0.064773 0.338895 1.106477
2006-01-17 10:32:27 51°16.136 2°54.352 -999 0.064773 0.3389 1.106477
2006-01-17 10:32:33 51°16.134 2°54.352 -999 0.064773 0.3389 1.106477
2006-01-17 10:32:38 51°16.134 2°54.352 -999 0.064773 0.338906 1.106477
2006-01-17 10:32:42 51°16.133 2°54.351 -999 0.064773 0.338911 1.106477
2006-01-17 10:32:48 51°16.132 2°54.351 -999 0.064773 0.338911 1.106477
2006-01-17 10:32:53 51°16.131 2°54.351 -999 0.064773 0.338911 1.106477
2006-01-17 10:32:58 51°16.131 2°54.351 -999 0.064773 0.338923 1.106477
2006-01-17 10:33:03 51°16.13 2°54.35 -999 0.064773 0.338923 1.106477
2006-01-17 10:33:07 51°16.129 2°54.35 -999 0.064773 0.338923 1.106477
2006-01-17 10:33:13 51°16.128 2°54.35 -999 0.064773 0.338934 1.140187
2006-01-17 10:33:17 51°16.128 2°54.35 -999 0.064773 0.338934 1.106477
2006-01-17 10:33:23 51°16.127 2°54.349 -999 0.064773 0.338934 1.106477
2006-01-17 10:33:28 51°16.126 2°54.349 -999 0.064773 0.33894 1.072768
2006-01-17 10:33:33 51°16.125 2°54.349 -999 0.064773 0.338945 1.106477
2006-01-17 10:33:38 51°16.124 2°54.349 -999 0.064773 0.338945 1.106477
2006-01-17 10:33:43 51°16.123 2°54.348 -999 0.064773 0.338951 1.106477
2006-01-17 10:33:48 51°16.123 2°54.348 -999 0.064773 0.338951 1.106477
2006-01-17 10:33:53 51°16.122 2°54.348 -999 0.064773 0.338951 1.106477
2006-01-17 10:33:57 51°16.121 2°54.348 -999 0.064773 0.338957 1.106477
2006-01-17 10:34:03 51°16.12 2°54.347 -999 0.064773 0.338962 1.072768
2006-01-17 10:34:08 51°16.119 2°54.347 -999 0.064773 0.338968 1.072768
2006-01-17 10:34:13 51°16.119 2°54.347 -999 0.064773 0.338968 1.106477
2006-01-17 10:34:18 51°16.118 2°54.347 -999 0.064773 0.338973 1.106477
2006-01-17 10:34:23 51°16.117 2°54.346 -999 0.064773 0.338973 1.106477
2006-01-17 10:34:27 51°16.117 2°54.346 -999 0.064773 0.338979 1.072768
2006-01-17 10:34:33 51°16.116 2°54.346 -999 0.064773 0.338985 1.106477
2006-01-17 10:34:38 51°16.115 2°54.345 -999 0.064773 0.338985 1.106477
2006-01-17 10:34:43 51°16.114 2°54.345 -999 0.064773 0.33899 1.173896
2006-01-17 10:34:47 51°16.114 2°54.345 -999 0.064773 0.338996 1.207606
2006-01-17 10:34:53 51°16.113 2°54.345 -999 0.064773 0.338996 1.207606
2006-01-17 10:34:58 51°16.112 2°54.345 -999 0.064773 0.339002 1.173896
2006-01-17 10:35:03 51°16.111 2°54.344 -999 0.064773 0.339002 1.207606
2006-01-17 10:35:07 51°16.111 2°54.344 -999 0.064773 0.339002 1.241315
2006-01-17 10:35:13 51°16.11 2°54.344 -999 0.064773 0.339007 1.207606
2006-01-17 10:35:18 51°16.109 2°54.343 -999 0.064773 0.339013 1.241315
2006-01-17 10:35:23 51°16.109 2°54.342 -999 0.064773 0.339013 1.241315
2006-01-17 10:35:27 51°16.108 2°54.342 -999 0.064773 0.339019 1.173896
2006-01-17 10:35:33 51°16.107 2°54.342 -999 0.064773 0.339019 1.106477
2006-01-17 10:35:37 51°16.106 2°54.342 -999 0.064773 0.339024 1.207606
2006-01-17 10:35:43 51°16.105 2°54.341 -999 0.064773 0.33903 1.275024
2006-01-17 10:35:47 51°16.105 2°54.341 -999 0.064773 0.33903 1.241315
2006-01-17 10:35:53 51°16.104 2°54.341 -999 0.064773 0.33903 1.241315
2006-01-17 10:35:58 51°16.103 2°54.341 -999 0.064773 0.339036 1.241315
2006-01-17 10:36:02 51°16.102 2°54.341 -999 0.064773 0.339036 1.241315
2006-01-17 10:36:07 51°16.101 2°54.341 -999 0.064773 0.339036 1.207606
2006-01-17 10:36:13 51°16.098 2°54.342 -999 0.064773 0.339047 1.106477
2006-01-17 10:36:18 51°16.096 2°54.342 -999 0.064773 0.339047 1.106477
2006-01-17 10:36:23 51°16.093 2°54.343 -999 0.064773 0.339047 1.106477
2006-01-17 10:36:27 51°16.09 2°54.343 -999 0.064773 0.339053 1.106477
2006-01-17 10:36:33 51°16.085 2°54.343 -999 0.064773 0.339053 1.072768
2006-01-17 10:36:37 51°16.082 2°54.342 -999 0.064773 0.339058 1.106477
2006-01-17 10:36:42 51°16.077 2°54.341 -999 0.064773 0.339064 1.072768
2006-01-17 10:36:48 51°16.072 2°54.339 -999 0.064773 0.339069 1.106477
2006-01-17 10:36:53 51°16.067 2°54.336 -999 0.064773 0.339069 1.106477
2006-01-17 10:36:57 51°16.063 2°54.333 -999 0.064773 0.339075 1.072768
2006-01-17 10:37:03 51°16.057 2°54.328 -999 0.064773 0.339081 1.106477
2006-01-17 10:37:07 51°16.054 2°54.324 -999 0.064773 0.339086 1.106477
2006-01-17 10:37:13 51°16.048 2°54.317 -999 0.064773 0.339092 1.072768
2006-01-17 10:37:18 51°16.044 2°54.31 -999 0.064773 0.339098 1.072768
2006-01-17 10:37:23 51°16.04 2°54.303 -999 0.064773 0.339098 1.072768
2006-01-17 10:37:28 51°16.037 2°54.294 -999 0.064773 0.339103 1.106477
2006-01-17 10:37:33 51°16.034 2°54.286 -999 0.064773 0.339109 1.106477
2006-01-17 10:37:38 51°16.032 2°54.277 -999 0.064773 0.339115 1.106477
2006-01-17 10:37:43 51°16.03 2°54.267 -999 0.064773 0.339115 1.072768
2006-01-17 10:37:47 51°16.029 2°54.26 -999 0.064773 0.33912 1.106477
2006-01-17 10:37:53 51°16.028 2°54.248 -999 0.064773 0.33912 1.106477
2006-01-17 10:37:57 51°16.028 2°54.24 -999 0.064773 0.33912 1.106477
2006-01-17 10:38:03 51°16.029 2°54.229 -999 0.064773 0.339126 1.072768
2006-01-17 10:38:08 51°16.03 2°54.219 -999 0.064773 0.339126 1.072768
2006-01-17 10:38:13 51°16.032 2°54.211 -999 0.064773 0.339132 1.072768
2006-01-17 10:38:17 51°16.034 2°54.204 -999 0.064773 0.339137 1.072768
2006-01-17 10:38:23 51°16.038 2°54.195 -999 0.064773 0.339137 1.072768
2006-01-17 10:38:28 51°16.041 2°54.189 -999 0.064773 0.339143 1.072768
2006-01-17 10:38:33 51°16.045 2°54.183 -999 0.064773 0.339143 1.072768
2006-01-17 10:38:38 51°16.049 2°54.178 -999 0.064773 0.339149 1.072768
2006-01-17 10:38:43 51°16.054 2°54.174 -999 0.06467 0.3386 1.072768
2006-01-17 10:38:48 51°16.059 2°54.172 -999 0.064773 0.339086 0.870512
2006-01-17 10:38:53 51°16.064 2°54.171 -999 0.064773 0.339086 0.870512
2006-01-17 10:38:58 51°16.069 2°54.17 -999 0.064773 0.339347 2.724529
2006-01-17 10:39:03 51°16.074 2°54.171 -999 0.064876 0.341968 2.758238
2006-01-17 10:39:08 51°16.078 2°54.173 -999 0.064773 0.340951 2.252597
2006-01-17 10:39:13 51°16.083 2°54.176 -999 0.06467 0.339852 1.679537
2006-01-17 10:39:18 51°16.087 2°54.18 -999 0.064567 0.33904 1.308734
2006-01-17 10:39:23 51°16.091 2°54.184 -999 0.064567 0.33904 1.308734
2006-01-17 10:39:27 51°16.094 2°54.188 -999 0.06467 0.339625 1.308734
2006-01-17 10:39:33 51°16.098 2°54.195 -999 0.065493 0.343932 1.275024
2006-01-17 10:39:38 51°16.102 2°54.2 -999 0.07105 0.373212 1.275024
2006-01-17 10:39:43 51°16.107 2°54.206 -999 0.0693 0.363886 1.275024
2006-01-17 10:39:47 51°16.111 2°54.21 -999 0.070432 0.370425 1.241315
2006-01-17 10:39:53 51°16.117 2°54.216 -999 0.070432 0.370425 1.241315
2006-01-17 10:39:58 51°16.122 2°54.221 -999 0.075577 0.398459 1.241315
2006-01-17 10:40:03 51°16.128 2°54.226 -999 0.092452 0.490927 1.241315
2006-01-17 10:40:07 51°16.132 2°54.23 -999 0.103153 0.550075 1.241315
2006-01-17 10:40:13 51°16.14 2°54.235 -999 0.107474 0.574059 1.241315
2006-01-17 10:40:18 51°16.146 2°54.24 -999 0.113957 0.610177 1.275024
2006-01-17 10:40:23 51°16.152 2°54.245 -999 0.113957 0.610177 1.275024
2006-01-17 10:40:28 51°16.158 2°54.249 -999 0.116117 0.622237 1.241315
2006-01-17 10:40:33 51°16.165 2°54.253 -999 0.119616 0.64178 1.241315
2006-01-17 10:40:38 51°16.172 2°54.257 -999 0.123423 0.663167 1.241315
2006-01-17 10:40:43 51°16.178 2°54.261 -999 0.124349 0.668416 1.241315
2006-01-17 10:40:47 51°16.184 2°54.264 -999 0.124555 0.669399 1.241315
2006-01-17 10:40:53 51°16.192 2°54.269 -999 0.124555 0.669399 1.241315
2006-01-17 10:40:58 51°16.2 2°54.272 -999 0.125172 0.67301 1.241315
2006-01-17 10:41:03 51°16.207 2°54.276 -999 0.125378 0.674108 1.241315
2006-01-17 10:41:07 51°16.212 2°54.279 -999 0.125378 0.674039 1.241315
2006-01-17 10:41:13 51°16.221 2°54.283 -999 0.125481 0.67465 1.241315
2006-01-17 10:41:17 51°16.227 2°54.286 -999 0.125996 0.677491 1.241315
2006-01-17 10:41:23 51°16.236 2°54.291 -999 0.125996 0.677491 1.241315
2006-01-17 10:41:27 51°16.242 2°54.294 -999 0.127025 0.68329 1.241315
2006-01-17 10:41:33 51°16.25 2°54.299 -999 0.127539 0.686319 1.241315
2006-01-17 10:41:38 51°16.258 2°54.303 -999 0.128362 0.690956 1.241315
2006-01-17 10:41:43 51°16.265 2°54.308 -999 0.129185 0.695559 1.241315
2006-01-17 10:41:47 51°16.27 2°54.312 -999 0.129597 0.697825 1.241315
2006-01-17 10:41:53 51°16.279 2°54.317 -999 0.129597 0.697825 1.241315
2006-01-17 10:41:58 51°16.285 2°54.321 -999 0.129906 0.69956 1.207606
2006-01-17 10:42:03 51°16.291 2°54.325 -999 0.130214 0.701308 1.241315
2006-01-17 10:42:07 51°16.296 2°54.327 -999 0.130523 0.703044 1.241315
2006-01-17 10:42:13 51°16.301 2°54.331 -999 0.130729 0.704948 1.207606
2006-01-17 10:42:18 51°16.305 2°54.334 -999 0.130935 0.707535 1.207606
2006-01-17 10:42:23 51°16.309 2°54.337 -999 0.130935 0.707535 1.207606
2006-01-17 10:42:27 51°16.311 2°54.339 -999 0.131449 0.714323 1.207606
2006-01-17 10:42:33 51°16.314 2°54.343 -999 0.137418 0.75418 1.207606
2006-01-17 10:42:37 51°16.315 2°54.345 -999 0.15985 0.889768 1.207606
2006-01-17 10:42:43 51°16.316 2°54.347 -999 0.213257 1.21423 1.207606
2006-01-17 10:42:47 51°16.317 2°54.348 -999 0.312772 1.830204 1.207606
2006-01-17 10:42:53 51°16.317 2°54.35 -999 0.312772 1.830204 1.207606
2006-01-17 10:42:58 51°16.317 2°54.351 -999 0.457485 2.755856 1.207606
2006-01-17 10:43:03 51°16.317 2°54.352 -999 0.608713 3.758538 1.207606
2006-01-17 10:43:07 51°16.317 2°54.353 -999 0.769653 4.85491 1.241315
2006-01-17 10:43:13 51°16.317 2°54.355 -999 0.9295 5.970003 1.207606
2006-01-17 10:43:17 51°16.317 2°54.356 -999 1.089183 7.108071 1.207606
2006-01-17 10:43:23 51°16.317 2°54.357 -999 1.089183 7.108071 1.207606
2006-01-17 10:43:27 51°16.317 2°54.359 -999 1.277459 8.476766 1.207606
2006-01-17 10:43:33 51°16.316 2°54.36 -999 1.484977 10.021592 1.207606
2006-01-17 10:43:38 51°16.316 2°54.362 -999 1.691132 11.593526 1.207606
2006-01-17 10:43:43 51°16.316 2°54.363 -999 1.90129 13.247558 1.241315
2006-01-17 10:43:47 51°16.316 2°54.364 -999 2.097805 14.839179 1.207606
2006-01-17 10:43:53 51°16.315 2°54.366 -999 2.097805 14.839179 1.207606
2006-01-17 10:43:58 51°16.315 2°54.367 -999 2.2692 16.245907 1.207606
2006-01-17 10:44:03 51°16.314 2°54.369 -999 2.42764 17.557095 1.207606
2006-01-17 10:44:07 51°16.314 2°54.369 -999 2.566705 18.745628 1.207606
2006-01-17 10:44:13 51°16.313 2°54.371 -999 2.694027 19.862478 1.207606
2006-01-17 10:44:18 51°16.313 2°54.373 -999 2.807117 20.868136 1.207606
2006-01-17 10:44:23 51°16.312 2°54.374 -999 2.807117 20.868136 1.207606
2006-01-17 10:44:27 51°16.312 2°54.375 -999 2.908652 21.739804 1.207606
2006-01-17 10:44:33 51°16.311 2°54.377 -999 2.987664 22.57864 1.207606
2006-01-17 10:44:38 51°16.31 2°54.378 -999 3.046414 23.177251 1.207606
2006-01-17 10:44:43 51°16.31 2°54.379 -999 3.087068 23.569612 1.207606
2006-01-17 10:44:47 51°16.309 2°54.38 -999 3.123586 23.896997 1.207606
2006-01-17 10:44:53 51°16.308 2°54.381 -999 3.123586 23.896997 1.207606
2006-01-17 10:44:57 51°16.308 2°54.383 -999 3.155349 24.224444 1.207606
2006-01-17 10:45:03 51°16.307 2°54.384 -999 3.177905 24.465509 1.207606
2006-01-17 10:45:07 51°16.307 2°54.385 -999 3.18856 24.453355 1.207606
2006-01-17 10:45:13 51°16.306 2°54.386 -999 3.188562 24.556635 1.207606
2006-01-17 10:45:17 51°16.305 2°54.387 -999 3.18546 24.656839 1.207606
2006-01-17 10:45:23 51°16.305 2°54.388 -999 3.18546 24.656839 1.207606
2006-01-17 10:45:27 51°16.304 2°54.389 -999 3.1807 24.595246 1.207606
2006-01-17 10:45:33 51°16.303 2°54.39 -999 3.175421 24.438356 1.207606
2006-01-17 10:45:38 51°16.302 2°54.391 -999 3.168489 24.383473 1.241315
2006-01-17 10:45:43 51°16.302 2°54.392 -999 3.162797 24.253688 1.207606
2006-01-17 10:45:47 51°16.301 2°54.393 -999 3.158249 24.446666 1.207606
2006-01-17 10:45:53 51°16.3 2°54.394 -999 3.158249 24.446666 1.207606
2006-01-17 10:45:58 51°16.299 2°54.395 -999 3.157522 24.295815 1.207606